GFSWCAN_925_spd_072.txt.gz
Wind_Speed
21 21 19 13 7 4 7 8 7 7 6 6 5 5 5 7 9 5 4 11 3 2 4 5 5 4 2 2 3 3 3 4 3 4 3 2 3 2 2 3 1 3 4 3 3 3 6 1 1 3 1 1 3 2
20 23 14 7 3 5 7 7 5 6 5 5 5 4 5 6 8 6 1 7 5 3 4 3 6 6 9 11 5 1 4 4 4 4 1 3 2 2 4 2 2 2 5 3 6 4 2 1 2 1 2 3 3 3
20 17 4 5 3 4 5 7 5 5 4 4 4 4 4 5 7 8 5 8 2 3 4 3 5 8 14 12 12 4 2 5 3 3 4 3 3 3 4 4 2 3 3 3 3 2 5 5 2 3 4 3 3 4
17 8 6 5 4 4 6 7 5 4 4 3 3 4 5 5 6 8 4 5 3 4 2 5 5 2 4 13 14 4 11 7 8 3 3 3 3 3 3 3 4 4 5 5 4 6 3 5 6 5 4 3 5 6
15 8 9 6 5 4 6 7 6 5 5 4 2 2 4 4 5 6 2 2 2 3 2 4 13 6 10 13 14 12 23 6 3 2 2 3 3 3 1 1 3 6 7 5 5 7 5 4 6 6 4 4 5 6
12 9 10 7 5 4 5 5 6 6 5 5 4 2 3 4 4 1 3 2 4 1 2 4 5 4 6 9 15 14 12 3 3 4 3 2 1 3 4 4 6 8 6 7 5 5 7 4 4 6 4 6 6 6
11 11 10 7 5 4 4 5 6 7 5 5 4 4 4 5 4 1 3 1 0 3 2 4 5 3 2 4 3 2 3 2 3 3 3 3 3 4 2 4 5 9 12 7 5 6 2 5 4 4 6 7 7 11
12 11 10 8 6 5 4 4 6 7 4 2 2 3 4 5 3 2 2 6 7 2 2 1 4 4 1 1 2 4 3 2 2 2 0 2 2 2 4 6 6 3 5 7 10 9 5 6 4 5 5 6 6 7
12 10 14 11 6 5 4 5 6 6 3 1 0 1 1 1 3 2 8 6 6 2 1 1 2 3 2 1 1 1 1 1 1 3 1 2 1 4 6 6 6 5 7 7 10 9 6 6 7 6 4 5 5 7
7 12 15 10 6 5 6 6 7 6 2 2 1 0 2 3 2 5 1 3 3 2 2 2 1 3 2 1 2 2 1 2 1 1 0 2 2 6 9 8 4 3 4 4 5 5 5 5 8 6 6 7 10 9
12 15 13 6 4 6 8 9 9 5 3 2 1 1 2 6 0 2 0 1 1 1 2 3 4 2 2 0 2 1 1 0 1 1 1 1 2 4 5 3 3 6 9 12 5 3 7 6 5 5 6 9 11 13
16 11 6 4 4 7 10 12 8 8 3 3 1 1 3 2 1 1 1 1 2 3 2 2 3 3 2 1 1 1 0 1 1 1 1 2 3 4 5 2 7 9 9 5 7 10 12 10 11 11 11 9 11 14
11 6 4 3 3 6 8 6 12 7 3 1 1 1 2 0 3 1 2 2 2 2 3 1 1 1 1 2 2 1 1 0 1 1 2 4 3 5 5 3 4 5 3 4 7 11 16 16 15 15 13 13 10 11
5 3 4 5 4 2 3 6 5 2 2 2 2 3 3 2 4 4 4 3 4 2 2 2 1 1 1 2 1 1 1 1 1 2 3 3 5 4 5 4 3 5 5 7 10 11 16 16 16 15 15 11 7 7
1 3 7 8 7 7 5 1 2 3 1 1 2 3 5 4 3 2 1 1 2 2 3 2 2 2 1 2 1 2 1 2 3 4 3 4 5 5 5 4 5 6 6 6 11 10 14 14 9 10 11 8 6 8
1 3 7 10 8 2 4 5 1 2 0 2 2 2 3 0 2 0 1 3 2 3 2 2 2 3 1 1 1 2 1 3 3 3 3 4 5 5 6 6 6 6 9 8 5 5 2 1 3 6 5 8 7 11
1 2 6 3 6 7 3 1 1 1 2 3 4 3 2 2 4 2 3 2 4 3 1 2 2 1 1 1 2 3 3 4 3 4 3 2 5 7 6 5 6 9 11 10 4 4 2 5 5 9 7 7 9 8
2 5 5 3 8 7 1 2 1 2 4 4 2 2 2 2 2 3 3 2 3 3 3 2 4 1 1 2 3 3 4 3 3 3 3 4 7 9 8 8 10 10 9 10 11 9 10 6 2 2 9 10 7 10
4 6 11 14 10 3 1 3 4 3 5 2 2 2 1 2 3 2 1 1 1 3 5 2 3 2 4 4 4 3 3 3 3 2 2 6 8 9 11 12 10 8 8 10 11 4 3 5 6 9 10 10 13 12
11 9 11 9 6 3 2 3 4 2 3 3 1 2 2 3 2 1 2 3 3 3 2 2 4 4 4 4 4 4 3 3 2 2 2 3 7 8 10 8 6 6 9 9 9 9 6 4 12 8 6 9 6 9
7 2 3 3 4 5 2 2 3 4 2 2 1 1 3 1 2 3 2 3 2 3 3 4 3 3 6 3 3 3 3 5 3 3 2 1 4 5 4 6 9 11 12 11 9 9 11 10 10 10 17 4 4 5
2 2 2 2 2 2 3 6 3 2 1 2 1 0 2 2 2 3 3 2 3 4 4 4 3 3 3 2 3 4 2 5 6 7 7 4 2 4 6 8 12 10 10 8 11 11 4 10 3 15 1 9 12 11
3 3 2 3 2 1 6 3 2 2 2 2 1 2 3 2 2 1 1 3 3 3 4 3 4 5 6 6 7 7 7 9 8 7 5 4 1 3 5 9 6 7 5 5 3 4 6 5 11 10 8 10 10 9
4 3 3 3 5 4 1 2 1 1 1 1 1 3 3 2 2 1 3 3 2 1 2 4 12 5 6 6 3 5 6 7 10 9 5 4 2 4 5 8 8 7 5 3 3 2 2 1 6 11 11 10 8 8
3 4 3 4 3 2 3 2 2 1 3 3 2 3 2 1 2 2 3 3 2 2 3 5 4 4 4 2 2 5 7 10 10 5 4 3 4 4 5 7 8 6 4 3 4 3 3 4 3 5 6 5 4 6
2 4 6 4 2 3 3 2 4 5 2 2 4 1 1 1 1 4 3 2 3 4 4 6 5 3 1 6 5 5 8 10 8 5 4 8 7 3 3 4 3 5 5 5 5 7 8 8 9 8 6 6 5 6
3 4 4 3 2 1 2 2 1 1 3 3 2 1 1 2 4 3 1 2 3 8 18 25 23 17 12 15 12 10 10 13 10 4 2 8 8 2 1 5 4 3 3 3 4 5 5 7 7 6 5 5 5 3
5 3 5 2 3 3 3 1 3 4 3 3 3 3 3 4 3 3 4 7 9 16 21 22 19 17 20 23 17 16 14 12 10 8 9 7 3 1 3 5 3 2 3 4 3 2 3 4 4 2 2 1 1 2
4 3 2 3 3 3 5 5 4 4 3 4 5 4 3 3 2 3 5 15 19 21 20 18 15 13 15 16 18 21 21 22 18 5 6 3 1 4 4 5 5 3 4 4 2 2 1 3 2 1 1 2 2 2
4 4 3 3 3 5 4 5 3 3 3 3 2 1 2 2 2 4 17 22 21 20 23 24 23 22 20 21 19 20 23 26 24 18 7 6 15 13 10 6 4 5 6 2 3 4 4 2 1 1 0 1 2 2
2 3 3 3 4 4 3 2 1 1 1 1 1 2 2 2 2 2 19 25 25 22 20 18 20 22 22 21 20 16 15 28 27 24 18 10 12 16 15 13 9 7 7 7 8 6 5 4 5 4 4 4 4 5
4 7 5 4 3 2 1 1 2 2 1 0 1 1 1 2 1 2 5 18 17 18 22 22 20 24 28 26 25 24 14 14 24 32 22 18 15 16 14 12 13 14 13 11 10 9 9 9 9 7 6 6 6 5
3 2 3 1 1 2 2 2 2 1 0 1 2 2 3 4 3 1 3 5 21 22 24 28 25 23 24 28 23 22 12 10 11 18 26 26 20 17 15 13 12 12 12 13 15 16 13 10 10 9 7 6 5 6

GFSWCAN_925_spd_075.txt.gz
Wind_Speed
20 19 21 19 11 6 4 8 8 8 8 8 7 5 6 7 9 5 3 9 3 1 3 6 6 5 3 3 3 4 3 2 2 2 1 2 2 2 2 1 3 5 5 3 2 4 6 6 5 5 5 3 1 1
18 18 20 9 3 4 5 7 7 7 6 7 7 6 6 7 8 6 0 4 3 2 2 4 6 4 4 7 5 2 1 2 2 4 1 3 2 3 3 3 3 3 2 3 7 3 2 5 2 4 3 3 4 2
17 15 13 4 4 4 6 7 6 5 5 5 5 5 5 6 8 8 3 6 2 1 2 2 4 3 9 8 7 3 1 3 4 2 3 2 2 3 4 4 3 5 3 2 2 6 10 8 3 4 6 5 5 3
12 13 10 7 6 5 6 7 7 5 5 4 3 3 4 5 6 7 3 5 4 2 1 2 3 2 3 8 10 4 10 8 8 2 2 2 2 4 2 1 3 1 9 6 5 5 2 7 7 3 5 6 4 3
8 12 9 9 8 5 5 6 7 6 6 4 3 2 3 4 6 5 4 4 5 2 2 3 6 2 3 7 9 11 18 7 3 3 2 2 3 4 2 2 4 8 7 6 5 8 4 3 9 11 8 8 7 6
9 11 9 10 8 5 5 6 7 7 6 4 4 4 3 3 4 1 1 5 6 3 2 2 2 2 5 7 10 12 9 3 2 3 2 2 2 4 4 4 5 12 10 9 3 9 4 9 11 14 11 9 10 9
11 11 8 10 8 5 4 5 7 7 6 3 4 4 3 3 3 1 2 1 1 6 1 2 2 2 3 4 3 3 4 2 1 2 2 2 2 3 1 4 4 8 12 9 5 9 6 10 7 14 12 10 9 9
10 9 8 11 10 5 4 5 6 6 5 2 2 1 1 1 2 3 4 3 5 1 1 2 1 1 0 1 2 1 2 1 1 2 2 2 2 1 3 7 9 5 4 9 14 14 1 7 9 10 11 8 7 7
10 8 10 13 10 4 4 5 6 6 4 1 1 2 2 2 2 2 9 7 5 1 1 1 2 2 1 2 2 2 1 2 0 2 2 3 1 3 6 8 10 8 6 5 7 15 11 8 9 9 8 8 7 7
8 7 12 14 8 4 4 6 7 6 3 1 1 1 1 2 4 4 2 1 1 1 1 1 0 1 2 0 1 2 1 1 1 2 2 1 2 9 11 12 11 7 5 5 5 10 12 12 11 11 11 9 9 8
7 11 14 13 5 2 6 9 9 5 2 1 1 1 2 6 1 1 1 0 1 2 2 2 3 2 1 2 1 1 1 0 1 2 1 0 2 4 5 9 3 5 8 7 4 5 8 10 9 10 10 12 10 10
14 18 14 8 1 5 9 12 8 6 3 3 3 3 3 2 1 1 1 2 3 1 3 2 1 3 1 1 1 0 0 1 1 1 0 2 3 5 6 5 3 2 5 13 13 12 13 10 12 11 11 11 11 10
14 9 6 2 1 5 9 6 11 5 4 1 1 1 1 1 2 2 0 2 2 3 4 3 1 1 2 1 1 2 3 1 2 2 2 3 4 6 4 2 5 9 9 8 6 8 9 10 12 13 15 13 10 10
7 3 1 2 2 2 4 8 5 2 2 1 2 2 2 2 3 3 2 1 1 2 3 2 2 1 1 2 1 2 2 2 2 2 2 2 3 5 4 4 6 11 11 9 8 10 14 15 19 16 17 13 13 12
2 3 5 7 7 6 4 2 2 3 1 1 2 3 5 4 3 1 1 1 2 2 3 3 2 2 2 2 0 1 2 2 2 1 2 2 5 7 8 7 8 9 7 7 6 8 10 11 11 14 14 11 12 12
2 3 8 11 10 5 1 3 2 1 0 2 3 3 3 2 1 1 2 2 3 3 2 1 2 2 1 0 2 1 1 2 1 2 3 4 6 7 7 8 7 7 5 7 9 10 14 5 4 10 9 9 9 8
1 2 6 5 7 6 2 1 1 2 2 3 3 3 4 4 4 2 2 1 5 3 1 1 0 1 2 1 2 2 2 3 3 4 3 3 6 6 6 7 8 6 6 7 8 8 7 2 7 11 6 7 3 2
3 5 5 1 8 5 0 2 1 2 4 4 3 2 2 3 2 2 2 3 4 2 3 1 3 2 2 2 2 3 4 3 3 2 2 3 5 7 7 7 6 6 6 7 7 10 9 4 3 4 5 6 7 6
4 4 7 10 7 3 1 2 3 3 5 2 3 2 2 2 3 1 2 4 2 1 5 2 2 3 3 3 3 2 3 3 1 1 0 2 5 7 8 9 10 9 8 8 9 8 5 7 6 6 0 9 6 4
5 7 7 7 5 2 1 2 2 3 3 1 2 2 2 2 1 2 3 4 3 2 3 3 4 3 3 3 4 2 1 2 2 1 2 3 5 6 9 9 9 7 6 6 7 6 8 10 10 6 6 11 14 4
4 2 3 4 3 3 2 2 3 3 3 3 1 2 2 1 3 3 3 4 4 3 4 4 4 3 6 3 3 4 3 4 2 2 2 2 4 7 7 7 6 7 7 8 5 8 12 9 11 14 14 15 11 1
1 1 1 1 1 2 3 5 3 2 2 2 2 1 3 2 2 2 4 4 3 3 4 3 3 5 5 4 6 4 6 8 8 8 7 3 4 5 5 5 6 6 6 6 9 7 9 5 13 9 1 4 6 5
3 2 1 1 1 1 4 2 3 3 3 1 1 2 2 2 1 2 3 3 2 2 3 2 5 7 10 8 10 10 9 9 8 7 5 5 6 5 6 5 5 5 4 5 4 5 6 8 4 3 6 6 7 7
5 2 2 2 4 3 2 3 2 2 2 2 2 3 2 1 2 2 3 2 1 2 4 7 11 7 7 8 6 8 8 9 9 6 4 4 5 5 6 6 5 4 4 5 5 5 3 5 6 6 5 6 5 5
0 2 3 3 3 3 3 3 3 3 3 2 2 3 1 2 2 2 2 1 2 4 4 7 6 5 6 6 7 8 7 8 7 6 5 4 6 5 5 6 6 5 4 5 7 6 5 3 2 5 5 4 4 4
1 3 6 4 2 3 2 2 3 3 2 3 4 1 1 2 2 4 2 2 3 5 7 8 6 5 5 10 8 7 8 8 8 5 6 6 4 4 4 4 6 5 4 4 4 6 7 8 7 6 6 5 4 2
3 4 4 3 2 2 3 2 2 3 4 3 2 3 2 3 4 2 1 3 3 6 12 13 13 10 9 11 9 8 9 9 5 5 7 8 6 4 4 4 7 6 4 2 2 2 3 4 5 5 4 4 4 2
5 2 4 2 3 3 3 2 3 3 2 1 2 4 3 3 2 1 1 4 4 10 12 11 9 7 11 12 12 13 11 10 9 9 9 7 5 6 7 5 6 5 4 3 2 1 1 1 2 3 4 3 1 2
4 2 3 4 4 4 5 5 4 3 3 3 2 3 3 2 1 2 4 7 11 15 14 12 8 10 10 12 13 11 13 16 14 10 9 6 7 6 7 7 6 4 4 3 2 2 3 2 3 3 4 4 3 2
4 5 3 3 3 5 4 6 2 1 3 2 1 1 2 2 3 4 7 13 14 15 16 16 16 15 13 15 12 11 13 15 14 11 7 7 10 11 9 8 7 6 5 3 3 4 3 2 2 2 2 2 2 4
2 4 3 4 4 3 3 2 3 2 3 3 4 4 4 1 2 4 9 12 12 12 14 13 13 15 14 15 15 14 13 18 19 15 8 5 12 14 12 9 7 5 4 4 4 3 2 3 4 4 3 3 4 4
4 7 4 3 3 2 2 3 2 2 2 3 3 3 2 2 3 3 6 12 11 11 14 14 15 16 21 16 16 15 10 9 18 26 23 15 10 15 14 11 10 9 8 6 6 6 6 5 5 4 5 5 5 4
4 4 4 4 3 3 2 2 2 2 2 1 0 1 1 2 1 2 0 6 10 13 13 15 15 16 13 16 19 17 18 12 8 8 14 24 17 15 14 11 10 10 10 10 10 9 10 9 7 5 5 4 4 4

GFSWCAN_925_spd_078.txt.gz
Wind_Speed
20 18 15 17 11 2 3 6 8 7 7 8 9 6 5 7 8 4 2 7 7 3 5 4 3 2 3 3 1 5 5 3 4 2 2 2 1 2 2 2 3 6 6 5 5 6 8 8 6 6 7 7 7 4
18 16 15 11 2 1 3 6 7 6 6 6 7 7 6 7 8 4 1 4 4 4 5 2 2 1 2 3 1 3 3 1 3 3 1 3 2 3 4 3 3 4 3 2 4 2 4 10 3 6 3 3 3 1
18 16 14 8 4 2 3 6 7 6 5 4 5 6 6 7 8 6 2 4 3 3 4 5 5 5 4 3 2 2 2 3 3 3 3 3 2 4 4 4 4 5 4 5 2 8 7 8 6 5 3 3 4 4
15 15 12 8 7 5 3 5 6 5 5 4 3 4 5 6 7 6 3 5 3 3 3 5 2 3 2 7 7 3 8 4 6 3 2 3 2 3 2 1 5 1 7 7 8 7 3 9 9 9 6 6 6 5
13 14 11 7 7 7 3 3 5 6 5 4 3 3 3 5 5 4 4 4 4 6 3 2 3 1 1 4 7 6 8 5 3 3 3 2 3 4 2 3 6 7 8 7 4 2 8 2 13 11 11 10 7 5
10 12 10 6 9 7 4 2 4 6 6 4 4 3 3 3 3 2 4 2 4 4 3 2 3 2 2 8 8 8 7 1 1 1 2 1 3 3 3 3 3 4 8 10 5 5 5 3 9 14 11 8 7 5
9 9 9 7 9 8 4 2 4 6 6 3 2 1 2 2 2 3 4 2 2 4 2 2 4 3 4 6 6 4 4 0 2 2 2 3 2 2 1 3 4 7 7 8 5 4 6 8 6 10 9 8 8 6
9 8 7 9 10 8 3 1 3 5 4 2 1 0 0 3 4 1 3 4 3 4 2 2 3 4 4 2 3 3 3 3 2 2 1 1 2 2 3 11 10 8 8 9 9 8 13 9 7 11 11 11 9 8
7 7 7 10 11 7 3 1 3 4 4 2 1 3 3 1 1 3 4 4 1 3 2 1 4 3 3 1 3 2 2 1 2 1 2 3 2 4 6 7 9 9 5 7 8 9 13 10 12 11 11 11 11 9
6 8 9 11 12 6 2 2 4 4 2 1 1 3 3 2 3 2 3 3 3 2 2 1 1 1 3 1 2 4 3 3 3 4 5 3 3 7 6 7 9 10 8 5 7 8 12 14 11 12 13 14 13 10
6 8 10 14 9 4 2 5 5 3 2 2 2 1 2 5 2 2 1 1 0 3 3 1 2 4 2 2 1 1 1 3 2 3 2 1 2 5 5 6 4 3 2 8 12 8 14 13 13 14 15 18 16 14
11 13 18 12 5 1 6 8 6 4 2 2 3 2 3 3 1 3 2 2 3 0 3 1 2 2 1 2 2 1 2 2 2 1 0 1 0 3 4 5 1 4 2 6 9 8 10 12 16 14 14 15 17 17
17 12 9 7 3 6 8 3 11 6 6 1 3 3 1 3 1 3 2 3 2 3 4 3 0 1 2 2 3 2 3 0 1 1 1 4 5 4 5 4 3 9 12 11 9 9 10 12 13 13 13 13 14 16
6 4 2 2 1 3 4 7 6 3 1 3 3 1 4 4 3 0 3 3 3 0 0 2 3 2 3 3 2 2 2 2 2 2 3 4 6 7 7 6 7 8 10 12 11 11 12 14 16 17 17 24 22 20
3 3 2 4 6 5 4 3 2 2 3 2 3 3 5 2 1 1 1 2 2 2 2 2 2 3 2 2 2 1 3 3 2 2 5 6 6 5 7 8 9 9 9 9 10 10 9 12 12 13 16 22 23 21
3 5 8 10 8 6 4 5 2 2 3 3 4 4 3 3 2 2 3 3 4 2 1 2 1 2 2 2 3 3 2 2 2 4 6 4 4 5 6 7 8 9 8 7 8 10 13 12 12 12 13 16 21 23
3 1 5 5 4 2 2 2 2 3 3 3 4 4 5 4 4 2 1 2 4 4 3 0 1 2 1 3 2 2 3 5 5 5 4 4 4 5 6 8 9 9 7 6 8 9 10 11 9 5 5 9 11 14
2 4 6 1 4 2 2 3 2 3 4 5 4 2 4 4 3 3 3 4 4 3 2 1 0 4 2 3 3 3 3 3 2 3 3 3 3 4 5 6 6 5 5 7 9 10 10 7 2 2 4 6 6 6
3 4 7 8 4 3 3 3 4 3 4 3 4 4 4 4 3 3 2 5 5 1 2 3 3 3 2 3 5 4 2 3 3 2 4 4 4 4 3 3 2 5 6 7 10 9 6 6 2 1 4 4 5 7
5 6 8 9 8 3 3 2 3 4 3 1 3 4 4 3 2 4 6 6 5 3 5 4 5 4 3 2 1 1 1 1 2 3 5 4 3 4 3 4 6 5 5 5 8 6 6 8 9 3 4 5 10 11
4 2 2 4 4 5 3 2 4 3 4 3 3 3 3 4 5 5 6 6 6 4 6 6 5 3 5 5 3 3 4 2 1 2 2 4 3 4 4 3 4 6 6 12 7 11 13 9 8 10 9 11 8 5
2 3 1 2 4 3 4 5 4 3 3 3 3 3 4 4 4 4 3 6 4 7 6 4 2 6 6 6 6 4 8 7 8 8 7 7 5 5 3 2 3 4 4 6 8 6 8 11 11 9 9 8 5 6
3 2 3 3 3 3 4 3 4 4 4 2 2 3 3 3 1 3 3 4 3 1 2 3 7 8 10 12 11 10 10 7 6 6 6 7 7 5 2 3 4 4 6 5 4 7 8 4 4 6 6 4 3 3
5 3 3 3 5 3 3 4 3 3 3 4 3 3 3 2 4 3 4 2 2 4 5 9 12 8 10 11 7 9 9 7 6 6 7 7 7 6 3 5 7 7 6 5 7 7 6 4 3 6 4 1 3 4
2 3 3 4 3 3 4 3 4 4 4 3 3 3 3 4 3 3 4 3 4 4 6 9 9 6 6 6 8 10 9 7 6 6 6 4 6 7 6 7 7 6 3 9 7 7 5 1 2 3 3 5 4 2
3 5 5 4 3 4 3 3 2 2 3 2 3 2 3 3 3 4 3 3 3 5 7 8 7 6 6 9 7 10 10 7 7 6 7 7 5 4 5 7 8 7 5 5 5 6 4 5 5 3 5 6 2 2
3 4 4 3 4 3 4 4 4 4 4 3 2 3 3 3 3 1 3 3 3 7 11 11 9 8 8 11 12 12 12 10 5 4 8 7 4 3 4 6 7 9 7 5 5 4 3 3 4 4 4 3 3 4
4 3 6 4 4 5 7 5 3 3 1 1 2 2 2 2 2 2 2 6 7 11 12 11 9 8 11 13 15 15 13 11 10 9 8 7 5 5 5 6 9 8 6 5 4 4 2 2 3 3 4 2 1 2
4 4 4 7 6 4 4 4 4 3 2 3 2 3 4 1 2 2 4 8 11 14 13 13 12 11 12 13 14 14 14 14 13 11 10 6 8 9 9 9 11 11 9 8 4 3 3 2 5 5 3 4 3 2
6 6 5 4 6 6 5 5 6 2 3 5 4 4 5 6 5 3 6 11 14 14 15 14 16 16 15 15 14 13 13 14 13 10 7 5 7 11 12 11 10 10 9 8 10 8 6 5 3 3 1 1 1 3
1 4 5 7 8 7 8 7 8 8 8 8 7 8 8 5 2 3 5 8 11 13 14 15 16 16 14 14 13 13 12 15 15 13 8 5 9 12 13 12 11 10 10 8 7 6 5 3 2 2 1 3 2 4
4 8 5 5 6 3 3 5 5 6 4 5 5 3 4 3 5 3 5 2 6 9 9 8 9 7 6 6 8 10 8 8 15 18 18 13 10 13 14 14 12 11 10 9 7 6 5 4 3 2 3 3 3 3
6 6 6 6 4 4 4 4 3 3 3 2 1 3 3 4 3 5 7 10 9 10 9 12 9 6 4 4 5 8 10 9 9 16 20 21 17 15 15 14 13 12 11 9 8 7 6 6 6 3 4 4 3 3

GFSWCAN_925_spd_081.txt.gz
Wind_Speed
21 19 18 16 11 6 0 3 6 6 6 7 8 6 5 7 7 6 3 6 8 4 7 2 3 1 4 5 3 7 5 4 5 2 1 2 2 1 3 6 2 6 5 5 8 8 10 9 5 6 10 10 9 9
19 18 17 14 7 5 3 6 7 5 4 5 6 7 7 7 6 3 3 3 4 6 8 1 3 1 2 6 3 3 4 2 6 2 1 2 1 3 4 2 3 4 3 3 4 4 6 4 8 9 7 10 6 6
15 16 15 12 8 5 5 6 7 6 4 3 4 6 6 6 7 4 4 5 4 5 6 8 7 7 3 2 6 5 3 3 3 5 4 3 1 3 3 4 5 5 1 5 3 9 4 3 5 4 3 4 6 4
14 13 12 9 7 6 5 4 5 5 4 3 2 3 4 5 6 5 5 5 6 4 4 6 4 4 2 2 2 4 4 1 1 4 5 4 3 3 3 3 5 4 6 5 7 6 2 7 8 7 5 3 5 7
13 13 10 9 6 7 5 3 4 4 5 4 2 2 3 4 4 3 2 2 5 7 5 7 7 3 3 3 5 4 4 3 3 2 3 3 3 1 5 4 5 7 5 5 4 7 4 3 10 8 8 7 6 6
12 12 9 8 6 7 4 2 4 5 5 4 2 2 3 3 4 5 6 3 5 6 4 4 9 3 1 6 6 5 6 3 3 3 2 1 2 5 2 2 4 5 0 6 7 6 7 2 3 11 9 9 8 7
12 10 8 8 7 9 5 2 2 5 5 3 1 2 3 2 3 7 5 4 4 3 4 3 6 4 3 7 6 3 2 4 4 3 3 2 5 9 4 2 4 6 9 10 8 3 5 6 6 8 10 10 7 8
10 9 7 6 9 9 5 2 1 4 4 3 2 1 0 3 3 3 2 3 2 7 4 3 4 5 8 2 2 4 3 2 2 3 1 2 1 2 2 11 13 10 10 9 10 10 11 8 9 10 12 12 11 9
7 7 6 6 10 9 5 2 0 2 3 2 1 4 1 4 2 5 3 1 3 5 4 3 4 4 6 2 2 1 3 3 4 3 2 4 2 4 8 10 8 7 9 13 10 9 11 10 11 11 13 12 12 10
5 6 6 9 12 8 5 3 1 2 2 0 0 6 2 4 2 1 3 4 6 4 4 2 1 2 3 3 3 3 3 2 3 3 6 4 3 10 9 5 7 9 9 10 11 11 9 10 10 12 13 13 13 11
4 5 9 12 11 7 5 2 2 1 1 3 4 2 5 4 2 1 3 3 2 3 3 3 5 5 3 3 2 3 2 3 2 4 3 2 2 5 3 4 4 5 5 4 7 10 11 12 9 11 8 11 10 14
10 12 15 13 6 3 4 7 5 3 3 3 4 1 3 2 2 3 4 3 4 1 2 3 4 4 2 2 3 1 2 4 1 5 2 2 2 2 3 7 6 4 5 6 9 11 15 17 20 22 19 19 19 18
19 17 9 6 4 4 6 5 10 6 2 3 4 2 2 3 2 4 4 1 2 3 5 4 3 2 2 3 1 2 2 1 1 2 2 5 5 4 4 5 6 4 6 9 10 13 17 17 18 20 19 16 15 14
6 4 3 3 2 3 7 8 6 1 2 4 4 2 5 4 4 1 6 2 2 3 3 4 3 2 3 3 3 3 2 1 2 3 3 6 3 4 5 7 9 10 8 9 9 10 10 11 11 14 14 16 18 14
3 4 2 2 4 3 2 1 3 3 4 3 3 3 6 6 2 5 2 1 4 2 2 4 4 3 4 3 3 3 2 4 3 4 3 5 3 5 7 8 9 10 10 12 9 4 6 7 10 12 16 18 22 21
3 5 5 5 4 3 2 3 3 3 4 3 4 6 5 4 2 1 3 2 4 3 3 3 1 1 2 2 3 3 3 3 3 4 5 6 7 6 7 7 8 9 10 9 8 7 10 12 15 15 14 11 11 14
2 1 3 3 4 2 1 2 3 4 4 4 5 7 4 4 6 4 0 3 4 6 2 1 2 1 3 3 3 1 4 6 7 5 7 8 5 4 7 9 9 10 9 10 10 11 13 14 15 13 10 6 7 10
2 2 5 1 4 4 2 4 3 4 6 7 6 4 4 4 6 4 4 3 4 3 3 2 2 6 1 3 4 3 4 5 3 4 4 6 4 5 7 6 5 6 7 8 10 10 9 10 10 5 6 6 6 6
4 3 7 5 2 3 3 5 4 4 6 5 5 4 4 4 3 4 3 6 6 2 3 3 3 3 4 1 3 5 3 3 1 4 7 5 2 4 3 1 2 3 5 5 10 10 8 8 9 6 4 4 6 9
6 6 7 8 6 4 3 3 4 5 5 1 4 5 3 5 7 6 6 6 6 6 6 5 3 6 7 3 3 3 3 2 4 4 5 6 6 5 1 7 6 6 4 9 7 10 6 5 9 6 4 5 9 8
4 3 2 5 5 7 4 3 4 5 4 4 5 3 5 6 7 8 7 5 7 9 8 6 5 9 6 6 3 1 5 3 4 4 4 0 4 2 6 4 3 3 9 10 4 10 10 9 6 6 5 7 12 9
2 3 2 4 4 5 4 7 5 6 4 7 5 6 6 7 5 4 2 7 8 7 8 6 2 7 6 5 6 3 8 5 2 4 3 4 5 6 5 1 3 1 9 4 3 4 6 4 5 6 4 4 6 7
4 3 4 3 3 2 6 5 5 5 4 4 4 4 5 5 2 3 4 6 6 4 1 1 3 4 7 10 8 8 8 6 7 5 6 5 3 3 4 2 3 3 4 6 9 4 5 4 4 2 3 3 3 0
5 4 4 4 6 4 4 6 4 3 4 6 3 4 4 3 5 4 7 5 4 6 5 6 10 7 8 9 7 8 9 8 6 6 6 7 6 5 2 2 3 2 0 8 11 5 3 5 3 2 3 1 3 1
3 4 4 5 4 3 5 7 10 6 6 6 8 4 2 4 3 6 7 4 6 5 6 9 9 8 7 7 7 9 8 8 8 6 8 7 6 6 6 5 4 2 4 5 7 5 3 2 0 1 2 3 5 2
4 6 5 5 6 6 4 3 2 4 6 4 4 2 3 2 3 5 2 4 5 4 6 8 8 7 6 6 7 8 11 9 6 7 8 8 8 9 7 6 6 6 4 5 5 3 3 2 2 2 4 3 2 4
4 6 6 4 5 4 4 5 7 5 5 4 1 2 2 4 3 2 3 2 2 4 8 10 10 8 6 9 10 11 10 8 7 3 8 8 5 4 4 6 7 7 6 3 3 3 3 2 2 1 1 1 1 2
6 4 8 8 8 6 10 8 8 4 3 2 3 5 3 3 2 2 3 2 3 7 10 9 8 8 9 12 13 13 11 9 8 7 7 5 4 5 4 3 6 7 2 2 1 4 4 1 1 2 1 2 3 2
7 6 6 8 8 6 6 7 8 5 3 3 5 5 2 2 6 4 5 2 6 9 10 10 9 9 11 12 13 13 13 12 11 7 7 5 6 7 7 7 6 10 9 6 6 5 3 5 5 6 2 2 1 2
10 8 9 9 11 11 9 7 7 9 5 5 5 6 7 8 6 2 3 3 7 8 9 9 10 10 12 13 13 11 10 12 10 10 7 6 7 9 10 10 10 11 10 9 8 7 5 7 7 7 5 4 2 3
4 4 7 10 11 9 10 9 10 11 9 9 8 9 9 6 11 19 19 13 5 5 9 11 9 10 9 10 11 9 9 9 9 8 7 6 5 8 10 11 10 9 9 9 10 11 11 10 7 3 4 3 1 5
7 9 8 9 9 8 7 7 8 9 9 8 8 5 5 5 3 4 17 14 7 9 16 10 13 5 8 11 10 7 1 5 11 11 12 11 7 10 11 11 11 10 10 10 9 8 7 8 7 3 6 5 3 4
7 7 7 8 8 6 7 7 6 8 7 1 5 5 7 6 5 2 6 9 8 10 17 19 17 10 1 8 5 6 11 9 4 7 11 14 12 11 12 13 13 12 11 11 10 10 8 9 9 8 5 7 6 5

GFSWCAN_925_spd_084.txt.gz
Wind_Speed
19 18 17 16 14 8 5 7 8 9 8 9 8 8 8 8 10 13 6 8 8 6 7 0 2 1 2 6 6 3 4 3 5 3 1 4 3 4 4 7 7 4 6 5 7 7 5 8 2 2 6 8 9 9
17 16 14 13 11 6 5 7 8 7 7 7 6 7 8 8 9 10 6 5 8 6 7 2 3 2 3 7 6 2 4 3 6 3 2 2 1 2 3 2 0 3 8 3 6 6 8 11 12 9 10 9 9 9
15 14 13 12 9 6 6 6 8 6 5 6 5 6 6 8 8 8 8 7 10 7 6 8 8 4 1 3 8 5 3 3 2 4 1 3 1 3 2 4 8 3 3 4 3 9 8 7 7 6 6 9 6 7
16 13 11 11 8 6 6 6 6 7 6 5 4 5 6 7 6 7 8 7 9 9 4 8 5 4 2 4 3 7 4 1 2 3 6 5 3 5 3 4 4 4 3 1 6 3 6 5 4 6 4 3 7 6
17 14 11 10 8 4 4 5 5 7 7 6 4 4 5 6 7 7 9 2 5 7 5 4 7 4 4 4 1 1 3 4 4 2 4 4 4 5 3 6 3 3 6 4 4 5 7 3 11 10 9 6 6 9
15 13 11 9 8 5 5 4 4 5 7 5 4 4 5 6 8 5 2 2 5 10 4 2 6 3 3 3 3 2 1 4 4 3 2 4 5 6 3 2 7 9 11 12 6 8 5 5 1 4 9 9 9 9
13 11 11 8 5 7 7 4 3 4 5 4 3 4 4 4 4 6 3 5 10 6 4 2 4 4 5 7 4 5 2 1 2 2 2 3 4 5 2 3 2 8 6 5 8 9 7 7 5 7 10 11 8 10
10 9 9 7 5 8 7 4 4 3 5 5 4 3 1 2 4 4 1 6 3 7 4 2 2 3 7 2 3 2 3 2 1 1 1 2 2 2 2 8 8 8 10 8 9 5 10 1 4 3 11 12 10 9
6 7 7 5 7 10 8 5 4 2 4 4 3 1 2 3 2 3 5 1 3 5 4 2 4 4 4 3 3 2 3 1 3 1 2 3 2 4 8 6 6 8 8 9 10 10 7 10 7 5 7 10 12 13
4 6 5 6 10 10 7 5 2 2 3 3 3 5 3 4 3 2 4 4 5 5 5 4 3 4 3 5 2 1 2 2 2 2 5 4 3 11 7 9 9 4 8 8 10 9 9 9 9 11 8 9 8 13
3 4 7 9 12 8 6 3 2 1 2 3 5 2 4 3 1 2 3 3 4 2 4 2 5 2 3 4 2 5 3 3 3 4 3 3 2 3 4 0 6 4 2 3 6 6 7 7 9 10 9 4 4 13
6 8 10 12 7 4 4 6 3 2 5 6 7 5 1 0 2 3 2 3 3 3 2 3 2 4 3 2 2 2 2 1 1 7 2 2 4 7 3 0 3 4 7 3 3 6 6 7 7 10 11 9 8 10
16 14 10 7 2 2 6 4 9 6 3 4 4 2 2 2 1 5 4 3 3 3 3 6 5 3 4 3 2 1 2 2 5 2 2 3 7 4 3 4 5 6 5 12 7 11 11 13 13 12 14 19 24 22
2 2 1 3 1 5 6 8 6 1 3 4 5 2 4 5 4 4 4 4 4 4 6 5 2 0 3 2 3 3 3 1 4 4 4 4 2 1 4 6 8 11 12 13 11 10 7 6 9 15 23 22 14 18
2 2 2 4 3 3 3 1 3 2 4 4 3 2 7 5 4 2 2 1 4 1 2 5 2 4 3 5 2 2 2 1 4 4 3 6 4 4 4 6 9 7 9 10 15 6 2 10 9 10 12 14 18 20
2 2 3 4 2 4 3 3 2 2 4 3 5 8 2 4 5 1 5 4 4 4 3 4 2 1 3 1 2 4 2 3 1 1 9 8 6 5 4 4 4 3 7 6 4 5 8 11 12 12 13 13 13 12
0 0 1 2 4 2 2 2 4 4 4 4 6 9 6 4 10 4 4 3 3 5 4 2 3 3 2 3 3 3 2 4 4 5 7 9 7 6 4 6 7 7 7 8 10 10 7 10 14 15 15 16 10 12
1 3 2 2 5 5 4 4 4 4 7 7 8 5 2 2 3 4 9 4 3 2 3 2 3 6 4 3 6 1 3 4 4 5 8 8 6 3 3 3 2 3 5 6 7 14 8 10 10 11 11 8 6 9
6 4 6 5 3 4 4 6 5 4 7 8 6 6 2 2 1 6 9 5 5 5 3 2 3 4 4 2 6 5 4 3 3 7 7 8 8 4 2 2 4 1 3 6 8 11 8 7 9 8 7 7 7 8
7 6 6 7 5 4 4 4 6 4 5 4 4 6 3 4 6 8 6 3 6 7 5 3 3 5 9 5 8 2 1 3 2 4 6 9 12 8 4 5 4 4 4 10 5 12 9 4 8 10 6 4 7 5
5 3 2 4 5 8 4 4 7 5 7 7 5 8 4 7 6 1 11 1 2 5 6 9 3 4 15 12 3 3 6 1 3 4 4 4 9 9 10 12 9 1 4 3 7 5 8 8 5 4 5 4 3 5
0 1 2 6 5 5 5 9 5 7 5 7 9 10 6 8 7 6 6 4 9 6 5 9 3 7 8 6 5 0 11 8 2 4 3 3 4 5 7 4 3 2 4 8 4 3 6 4 4 3 2 8 3 6
4 4 5 6 4 2 5 7 8 9 8 6 8 12 11 10 9 4 5 10 10 11 12 3 7 3 5 14 10 8 7 6 6 7 5 7 4 3 4 5 5 3 7 9 4 2 3 1 3 5 3 2 3 5
5 4 4 5 7 4 5 6 6 6 4 9 8 9 6 2 4 7 10 10 2 1 6 9 8 7 7 9 6 7 7 8 7 6 6 5 7 7 3 3 4 3 3 9 4 5 4 5 4 4 3 1 5 4
3 5 3 5 5 5 5 8 10 10 14 12 10 6 5 1 5 8 11 0 10 3 9 7 6 8 7 8 8 12 10 10 7 6 8 8 6 9 6 6 4 3 3 7 3 3 3 0 4 4 6 9 11 9
6 6 6 5 6 5 5 1 3 8 7 3 3 3 5 4 4 7 3 5 6 9 8 7 7 7 8 8 7 9 11 11 8 6 10 9 7 8 8 5 6 8 5 2 3 2 2 0 2 2 2 5 3 4
4 7 8 9 7 8 5 4 7 6 6 6 4 1 3 1 5 2 6 9 9 3 4 9 10 9 6 9 9 11 10 10 7 5 10 8 8 4 2 5 6 6 8 3 2 3 3 2 1 2 2 2 2 2
8 5 9 7 7 7 9 10 11 4 3 2 5 3 2 3 0 4 7 35 13 2 4 7 6 7 6 10 13 13 12 10 9 4 7 6 4 5 5 4 9 9 7 4 3 2 5 4 2 3 1 1 1 2
9 10 10 9 9 6 7 10 11 10 8 4 4 3 5 5 10 1 3 4 6 5 7 6 5 5 7 11 14 11 11 13 10 8 8 5 5 7 7 8 5 6 8 7 5 1 5 8 7 6 5 1 1 2
12 9 10 10 10 11 10 10 10 10 9 8 4 7 4 2 14 17 22 23 24 17 2 4 8 7 11 11 11 9 10 8 12 10 6 6 8 11 10 9 8 8 9 9 7 6 5 6 4 4 7 4 3 3
8 10 12 10 11 10 10 9 10 10 10 11 10 9 8 5 14 26 24 13 7 14 12 8 22 20 16 19 18 6 3 9 18 5 4 7 7 10 9 9 10 10 10 10 10 11 11 9 9 11 11 3 3 4
7 9 9 9 9 8 9 9 9 10 10 9 5 9 6 3 4 2 16 14 10 10 13 23 21 18 14 16 8 11 12 20 21 10 8 7 8 6 8 8 10 10 10 10 10 10 8 7 6 3 7 3 2 6
7 8 9 8 9 12 11 11 9 9 7 5 5 2 1 4 4 3 2 8 6 6 6 7 13 17 16 7 11 16 14 14 12 10 4 6 6 5 8 9 9 9 10 10 10 9 9 9 8 10 7 6 5 3

GFSWCAN_925_spd_087.txt.gz
Wind_Speed
21 15 14 14 13 12 9 9 11 11 10 9 10 10 11 14 16 16 8 7 7 3 2 6 6 6 5 6 5 2 2 3 2 5 4 2 3 2 3 5 3 4 2 2 3 2 2 9 8 5 2 7 15 18
20 16 12 13 11 11 9 8 10 11 10 9 9 10 10 12 14 13 5 14 12 3 1 3 10 7 7 7 3 2 1 3 2 4 4 3 1 0 3 2 4 3 3 0 3 3 2 8 8 7 8 7 10 10
17 15 10 11 10 10 8 7 8 7 9 10 8 9 9 10 12 13 9 15 12 2 5 3 6 1 2 4 9 2 3 5 4 2 1 2 2 3 0 2 2 5 5 3 4 2 7 7 7 7 7 7 8 9
16 16 11 8 8 9 8 7 8 8 8 8 8 8 8 9 9 10 6 9 11 5 2 5 9 6 5 9 8 9 5 3 2 1 2 1 4 3 4 4 1 2 2 3 2 4 6 6 6 6 7 6 7 7
16 15 13 8 6 8 8 6 6 8 7 8 8 8 8 9 9 8 6 4 10 5 3 1 12 3 7 7 6 8 11 5 3 3 3 3 3 4 4 2 4 4 3 2 2 4 3 1 8 9 6 2 5 6
17 14 11 9 6 6 8 6 5 6 8 8 6 6 7 8 8 4 2 8 6 9 3 2 4 4 7 5 10 9 9 3 3 3 3 2 3 4 1 1 4 6 6 6 3 7 6 6 5 6 8 8 5 8
14 11 9 9 7 7 9 7 4 4 4 5 5 6 7 5 4 3 2 4 12 5 2 2 2 2 7 4 6 4 9 2 3 2 2 2 3 5 1 2 2 5 4 5 5 6 5 7 3 3 7 13 10 7
9 8 6 8 6 7 9 6 4 3 2 4 6 6 4 3 5 3 3 8 5 4 3 0 2 1 5 1 2 1 2 2 2 3 2 2 3 3 1 6 6 4 5 5 2 2 3 3 5 7 3 12 8 6
5 5 5 6 5 8 9 7 4 3 3 4 5 4 3 2 3 2 6 2 2 4 3 2 3 3 3 1 0 1 2 2 1 2 2 3 2 3 7 6 3 5 4 4 5 5 4 4 5 3 2 4 7 8
0 2 4 4 6 10 8 5 2 3 4 4 3 4 2 3 5 5 1 3 4 5 3 0 3 3 4 2 3 2 3 2 2 2 3 3 3 7 7 9 5 6 4 4 3 5 6 5 5 5 6 4 3 8
0 2 4 5 9 8 6 4 3 4 3 1 3 1 2 1 2 2 3 3 2 2 2 2 2 1 3 2 1 3 1 3 2 3 3 3 3 4 7 6 3 1 1 7 7 3 4 4 3 4 5 8 6 11
4 6 8 7 5 3 4 5 4 1 3 5 7 7 4 1 1 3 3 3 3 3 3 4 2 3 2 1 2 2 3 2 3 6 2 2 1 5 1 5 7 6 6 6 12 8 8 5 5 5 6 5 7 13
12 8 5 5 1 4 5 8 10 6 6 2 3 2 1 1 0 5 5 2 2 3 4 4 3 3 2 2 1 2 2 3 6 3 2 3 3 4 7 8 3 13 1 6 7 6 9 3 8 9 7 12 12 10
5 3 1 3 3 1 7 9 5 1 2 3 3 2 5 5 5 4 3 4 4 3 5 5 5 3 3 3 2 3 3 2 3 4 2 4 7 8 5 3 5 5 7 10 9 11 3 4 8 9 11 14 11 15
4 4 4 4 5 4 1 2 4 3 3 3 3 3 7 7 1 2 5 3 3 2 4 2 1 3 3 2 3 2 3 1 3 3 3 5 6 5 4 3 2 2 3 3 3 4 8 8 6 6 6 9 12 15
2 3 4 4 2 3 4 5 4 2 4 3 4 6 6 5 1 3 3 2 4 5 1 1 2 2 2 3 4 4 4 4 2 3 6 6 6 6 3 2 3 5 3 8 10 8 5 5 9 11 12 14 13 10
1 0 0 2 4 2 4 2 5 4 4 4 5 8 9 3 4 4 2 4 1 3 3 3 3 3 2 2 3 1 2 1 9 8 7 7 6 6 4 4 6 4 10 6 7 9 9 12 11 10 10 12 11 8
3 3 1 3 6 6 3 5 4 4 7 6 6 8 5 4 5 4 6 2 2 3 1 2 1 4 3 2 1 3 3 4 8 9 8 7 8 8 8 6 5 5 7 6 9 7 12 12 11 9 8 7 8 11
5 6 7 5 4 4 4 7 6 4 5 7 8 7 4 3 3 1 2 4 2 4 3 2 3 3 1 2 3 3 1 5 8 8 7 12 14 12 10 9 8 8 13 11 6 10 11 8 8 11 8 8 9 10
10 8 6 5 5 4 4 3 9 4 4 3 4 7 3 2 3 3 4 3 2 4 3 3 3 3 3 3 2 2 2 4 6 8 8 8 14 14 10 6 3 15 16 14 8 13 10 6 9 8 4 1 6 6
5 3 2 2 4 7 4 4 4 5 5 5 6 7 3 3 4 4 5 3 3 3 2 3 6 4 7 7 11 10 6 5 2 2 6 9 16 16 14 9 8 11 13 15 9 7 8 10 9 5 2 1 0 4
2 1 3 4 4 5 5 9 4 6 4 5 8 6 6 6 7 6 6 3 3 6 7 8 6 5 4 5 5 7 15 16 13 11 11 13 6 7 10 15 14 9 14 12 10 6 4 4 3 4 8 5 4 6
4 4 4 6 4 3 6 5 5 3 3 3 3 5 4 4 3 6 4 3 5 3 4 4 6 17 10 14 18 14 13 14 6 8 7 9 9 12 10 8 4 5 13 14 10 11 8 6 5 3 8 2 3 1
4 3 4 4 7 4 4 4 4 3 4 6 4 7 8 2 3 3 4 2 2 2 4 2 6 7 8 8 6 7 11 10 10 15 11 7 9 8 1 11 6 19 16 16 14 11 11 7 6 6 5 5 9 10
1 5 3 6 4 4 5 4 7 8 12 12 8 4 3 3 2 2 3 5 4 3 5 8 6 8 7 7 6 14 18 15 10 8 15 9 13 15 8 4 6 10 15 15 10 14 13 11 6 5 9 6 4 2
5 5 7 6 6 5 4 4 2 1 5 7 5 2 2 3 2 4 2 2 2 3 4 5 8 7 6 9 7 9 17 17 10 11 17 15 15 15 10 6 4 8 8 6 11 9 10 5 4 3 11 8 6 2
4 6 7 6 5 6 4 5 6 3 3 1 3 3 1 4 4 3 2 4 4 10 23 28 23 8 8 11 18 20 19 13 5 7 18 11 9 6 6 12 8 13 16 9 5 3 5 6 6 3 6 5 6 1
7 7 13 7 7 7 9 7 8 8 6 3 4 3 3 4 5 5 3 16 15 12 20 31 10 8 6 23 24 21 18 23 20 15 12 4 4 8 12 13 14 14 13 11 8 9 7 7 4 4 7 6 5 4
8 6 8 12 10 8 8 7 6 5 7 2 5 5 4 2 3 3 13 20 15 3 16 17 27 12 23 23 22 26 25 21 13 9 5 4 3 7 9 10 9 8 8 9 7 6 7 6 4 3 3 1 4 3
13 10 12 14 13 12 6 4 7 8 8 4 5 4 3 2 1 3 11 13 14 12 5 2 10 10 17 21 21 20 20 21 21 16 5 4 8 15 18 15 13 8 10 13 8 5 5 6 2 2 1 5 9 4
8 9 13 11 10 8 8 7 7 7 7 4 8 9 6 4 5 5 14 18 12 16 13 10 16 23 22 17 15 15 8 11 18 19 16 24 12 19 20 16 15 12 12 13 16 12 9 9 10 12 11 8 11 3
9 9 7 10 5 5 6 7 7 7 3 3 3 3 2 3 1 1 13 14 8 10 11 8 7 9 22 22 19 17 10 10 12 15 17 12 7 15 14 12 10 12 15 13 11 16 18 18 15 15 11 10 5 9
8 6 7 10 9 8 5 6 5 4 4 3 3 3 3 2 3 2 2 8 7 8 6 5 7 10 16 17 15 13 12 10 12 15 13 4 8 11 9 8 9 9 11 11 12 12 9 7 10 6 5 3 8 9

GFSWCAN_925_spd_090.txt.gz
Wind_Speed
18 19 16 11 11 13 12 9 9 11 11 11 12 13 13 13 15 14 8 13 7 2 5 4 4 5 4 4 3 4 4 5 4 5 3 2 2 2 3 3 2 2 2 2 2 2 1 7 3 5 3 6 8 6
17 17 16 11 10 10 12 10 8 9 9 9 10 11 11 12 13 12 4 14 12 3 4 5 10 8 6 3 4 5 4 2 3 4 1 2 2 2 2 1 5 3 4 4 3 3 5 5 8 5 7 14 5 7
16 15 15 13 10 8 11 9 6 7 9 9 9 10 10 11 12 11 7 13 9 3 4 4 1 8 14 17 15 4 3 1 3 4 4 2 2 3 1 3 3 5 1 4 4 4 4 8 8 5 8 10 10 9
16 15 14 13 9 8 11 9 7 6 8 9 10 8 9 9 9 7 6 14 6 2 3 5 7 4 8 12 13 11 4 6 3 3 3 3 3 1 3 3 3 2 4 3 3 5 4 4 6 6 8 7 10 8
18 18 15 12 9 7 8 7 7 7 7 7 7 8 8 9 7 4 5 9 10 4 3 3 3 8 9 13 16 17 17 5 3 4 4 2 1 4 3 3 4 3 1 3 2 4 3 4 5 7 8 7 8 11
17 16 14 9 9 8 7 5 6 4 7 7 7 7 8 8 5 3 3 4 12 7 3 1 2 3 11 18 18 11 7 4 3 3 1 2 2 2 2 2 2 2 4 2 1 3 2 3 3 3 7 8 11 12
13 11 10 7 8 7 6 6 5 3 4 6 6 7 5 3 4 1 3 1 9 5 3 2 2 2 8 5 3 3 7 2 3 2 3 2 3 3 2 2 3 5 3 2 2 4 5 5 3 7 4 12 16 18
6 6 6 6 7 7 5 6 4 5 4 6 6 5 2 5 5 1 2 4 2 1 3 2 1 2 3 1 1 1 2 3 4 3 2 3 2 3 1 6 6 6 3 4 3 2 2 2 3 5 7 4 7 7
1 2 4 7 7 5 6 5 3 6 7 6 6 4 3 2 1 1 1 2 2 1 3 2 4 4 2 1 2 4 3 3 2 2 0 3 1 2 6 7 4 0 2 4 2 4 5 1 3 5 3 2 5 6
3 2 3 4 6 6 8 6 4 5 7 8 4 1 2 2 4 3 2 2 3 1 1 2 1 3 4 1 1 2 2 2 1 3 2 2 3 5 6 8 6 6 6 5 2 3 2 2 2 3 4 3 5 8
2 2 2 4 5 6 5 4 3 4 2 2 2 1 3 3 2 2 1 2 1 2 3 4 3 4 1 3 3 2 3 1 2 4 3 1 3 4 7 8 8 9 9 10 8 7 7 5 4 2 4 8 7 9
5 5 5 4 4 3 2 4 4 1 2 5 7 6 3 2 4 3 2 3 2 4 1 4 3 4 1 3 3 2 3 2 3 4 3 2 4 5 6 8 8 11 9 10 16 12 11 9 8 5 6 6 6 8
8 5 4 5 2 4 6 4 6 4 4 2 1 1 2 0 3 3 4 3 0 2 4 3 1 3 3 3 2 3 3 4 5 2 3 4 4 3 5 3 2 9 8 9 6 12 12 8 7 5 6 8 11 12
4 1 3 2 3 1 4 6 5 2 1 1 3 3 4 3 4 5 4 4 5 3 5 4 3 3 3 2 3 3 4 4 3 4 5 4 7 8 6 2 5 6 7 7 6 6 5 1 4 5 6 6 8 12
3 3 1 3 4 3 2 3 5 4 1 2 1 4 6 5 3 3 2 0 2 5 5 3 2 3 1 2 3 1 3 4 5 5 4 4 8 7 5 5 7 6 5 5 4 6 6 5 7 8 9 7 6 6
2 1 4 5 3 2 4 4 3 1 3 2 4 3 4 2 3 2 1 2 1 4 3 3 3 3 4 4 3 5 4 5 4 4 4 6 8 7 6 4 5 7 9 11 10 6 5 8 5 2 3 7 6 6
1 2 1 2 5 5 4 2 2 3 3 3 4 4 4 3 5 4 3 4 1 3 2 2 4 8 1 0 2 3 4 4 4 3 4 7 9 8 7 10 10 15 11 10 9 13 8 6 6 6 6 7 6 5
2 2 2 2 5 6 2 3 3 3 6 5 3 4 2 3 4 3 4 1 2 2 3 5 4 2 4 4 2 3 1 0 1 5 6 6 9 13 15 13 13 15 12 13 14 11 7 7 6 3 2 4 5 9
1 5 6 4 3 3 2 4 5 3 5 4 4 3 3 4 3 3 4 5 5 2 2 2 2 3 4 3 4 3 4 4 4 3 3 11 18 16 18 17 15 13 17 14 17 12 9 8 7 7 4 6 7 6
9 8 6 3 3 1 3 4 7 3 3 4 2 3 3 3 3 3 4 4 4 3 1 3 4 4 5 4 5 4 4 5 6 4 3 4 16 18 19 19 16 19 17 15 17 14 13 10 8 8 5 4 6 4
2 1 1 3 4 6 3 3 3 4 3 2 3 2 4 2 2 2 3 3 3 4 4 5 5 5 7 6 9 11 7 14 8 6 8 5 16 21 19 16 14 23 19 18 17 14 16 14 11 9 6 5 6 5
1 1 0 3 4 5 4 8 4 4 2 3 4 2 2 2 3 4 2 2 4 5 5 4 4 4 4 5 6 12 12 17 19 15 19 18 6 5 8 18 19 14 18 20 17 15 13 12 11 11 8 5 5 4
2 2 3 5 4 1 6 3 3 3 2 3 2 2 3 2 2 3 2 2 2 2 3 1 2 4 6 8 10 13 21 21 9 12 17 18 19 20 19 20 13 19 17 21 18 13 11 9 8 10 6 7 6 3
2 2 3 3 5 4 3 3 3 3 3 2 2 3 0 0 2 3 3 3 3 2 2 3 3 2 3 8 4 6 14 13 13 14 16 19 12 13 22 18 22 28 28 22 18 15 12 12 9 10 10 9 11 10
1 4 4 5 3 3 4 3 4 2 3 3 2 3 1 1 0 2 2 3 2 2 2 3 2 3 1 2 2 14 19 20 14 6 18 25 20 10 8 11 16 22 24 25 21 20 18 16 14 12 10 9 10 11
3 3 6 4 4 4 4 2 2 3 2 3 2 2 1 2 0 3 2 4 2 2 3 3 1 3 6 8 5 6 17 20 18 9 12 22 24 20 12 6 5 15 25 25 25 24 21 17 12 20 15 10 11 10
3 5 5 5 3 2 3 3 3 2 4 4 3 2 2 1 2 3 3 2 2 4 9 7 1 6 3 10 20 16 15 15 13 17 13 11 16 23 25 19 13 20 18 20 16 20 23 17 16 19 16 14 10 7
5 4 6 4 4 4 6 3 3 3 2 4 2 4 3 2 3 3 4 6 5 16 16 9 9 3 9 11 12 25 27 30 29 22 12 0 10 10 10 11 15 15 16 17 16 14 11 12 12 17 17 18 11 8
5 4 2 7 4 4 3 4 5 4 4 4 5 5 4 1 2 2 6 12 15 13 6 5 11 20 22 22 21 26 30 31 23 11 8 4 2 9 15 16 15 15 15 15 13 12 13 16 17 16 12 9 9 11
5 5 4 3 3 3 4 4 4 5 3 3 4 2 1 1 2 1 7 12 10 10 13 8 5 17 16 20 18 20 14 18 24 18 6 3 3 6 17 18 18 17 16 14 12 11 11 10 8 8 8 6 7 10
3 4 5 5 4 5 8 5 4 2 3 3 3 3 3 3 1 3 9 8 6 8 9 9 12 20 22 20 19 18 10 18 9 14 13 5 13 16 16 24 18 15 19 17 14 12 12 13 13 12 9 8 8 9
4 7 4 4 5 8 3 1 1 4 2 3 4 3 2 2 1 2 5 8 6 8 9 9 10 7 7 9 13 16 16 12 16 16 11 8 13 9 22 23 21 16 19 22 21 17 15 14 15 17 16 15 17 14
5 5 6 4 3 2 2 2 4 3 3 2 1 2 2 2 2 4 3 4 5 4 6 8 10 10 8 10 13 14 8 10 13 9 5 6 2 21 20 18 19 20 20 21 20 25 22 21 22 20 18 19 20 15

GFSWCAN_925_spd_093.txt.gz
Wind_Speed
20 19 18 18 15 12 12 12 9 9 9 10 10 10 11 12 14 7 4 12 4 2 5 2 2 3 2 2 3 4 4 5 4 4 3 2 2 2 2 3 4 2 2 2 1 3 3 7 8 5 4 1 7 5
20 18 17 16 15 12 11 11 10 8 8 9 9 10 9 11 12 7 3 12 4 3 4 2 6 4 2 5 5 3 5 2 4 4 0 2 2 2 2 1 4 3 3 4 3 4 4 5 3 4 1 6 5 8
19 18 16 16 15 12 11 11 10 6 7 8 7 8 9 10 10 9 5 15 3 3 4 4 3 6 10 10 3 4 2 3 1 3 4 2 3 3 1 3 2 7 4 4 4 4 4 3 5 7 8 7 7 9
20 19 18 16 14 13 11 10 9 6 6 6 6 4 5 6 8 8 4 12 3 3 3 5 5 3 7 12 14 11 5 4 5 3 3 3 2 1 2 3 3 2 4 1 3 4 5 7 5 4 7 7 10 6
22 20 19 18 13 12 12 10 8 5 6 7 6 3 5 6 6 3 6 10 9 2 4 2 5 4 11 14 14 14 12 4 3 3 4 1 0 2 2 2 3 2 2 3 3 3 4 4 4 3 7 6 8 11
21 19 17 15 11 10 11 9 7 5 6 6 5 5 5 5 3 3 3 1 9 3 3 1 3 1 7 14 15 13 7 4 3 3 2 2 1 2 2 1 3 2 1 4 2 3 1 3 6 5 2 7 5 9
14 12 11 10 8 9 9 7 5 4 5 5 6 6 4 2 2 2 3 1 7 4 2 2 2 1 3 4 3 3 7 3 3 2 3 2 3 3 2 2 4 4 5 1 0 3 3 5 3 4 4 3 12 13
8 6 5 5 7 9 7 7 6 4 4 6 8 5 2 1 2 2 2 4 2 3 3 3 2 2 2 0 2 3 3 3 5 2 2 2 3 3 1 5 5 5 4 3 4 4 2 2 1 3 6 2 4 5
5 4 4 5 8 7 7 8 6 4 4 6 7 4 1 1 2 1 2 1 1 1 3 2 4 4 2 1 2 3 3 3 2 2 1 3 1 2 6 6 4 4 4 4 2 3 4 1 2 4 2 2 4 6
3 1 2 4 3 3 5 5 3 5 6 5 2 2 3 1 1 1 1 3 3 3 2 2 1 2 3 1 2 2 2 1 1 2 2 2 3 5 6 7 6 5 4 5 2 3 1 3 2 3 2 1 3 6
1 1 2 4 4 3 4 3 2 4 2 1 2 1 2 2 1 3 0 1 1 1 1 2 3 3 1 3 2 1 2 1 2 3 2 2 3 4 6 8 8 9 9 9 8 5 6 5 4 3 3 3 5 8
5 3 4 5 4 1 2 4 3 2 2 2 3 4 3 3 3 1 1 2 3 4 2 4 4 3 1 3 3 0 2 2 2 3 2 2 4 5 5 8 8 8 8 7 13 11 10 11 11 8 6 6 6 5
4 2 3 3 2 3 6 5 3 3 3 2 1 2 3 1 2 4 5 2 2 3 4 3 2 3 2 3 3 2 2 3 3 2 3 4 3 4 7 4 3 4 9 7 6 11 11 11 9 8 6 7 7 9
3 1 2 3 3 2 2 4 5 2 1 1 2 3 4 3 5 5 4 4 5 3 5 4 2 3 1 2 3 3 2 4 1 1 5 4 7 8 7 4 5 6 7 7 5 5 5 6 3 1 3 6 8 9
3 1 3 4 5 4 3 2 3 2 2 2 2 4 6 4 4 4 4 1 2 4 5 3 3 3 1 2 2 3 3 4 5 5 4 5 7 7 7 6 7 6 5 5 5 5 6 5 5 3 3 4 5 8
3 1 1 4 3 2 3 3 2 1 1 2 3 3 2 1 2 1 1 2 3 4 3 3 3 3 3 3 3 5 4 5 4 4 4 3 6 7 6 7 8 11 10 10 8 6 4 5 3 2 1 5 7 6
1 2 1 1 3 2 2 2 2 2 3 3 4 3 3 4 5 3 4 3 4 4 3 3 5 7 2 2 3 4 5 5 5 4 4 7 9 8 7 9 11 14 14 12 8 8 7 3 3 0 2 4 4 4
3 2 1 3 4 3 1 3 2 2 5 4 2 3 3 3 3 3 3 3 4 4 4 5 4 4 5 5 4 4 5 3 2 3 4 5 7 13 17 15 17 16 14 13 13 11 7 5 3 1 1 4 4 5
5 3 5 6 4 2 1 3 4 3 5 3 3 3 3 4 4 4 3 4 3 1 5 3 3 4 4 4 5 4 4 4 4 4 3 5 18 19 19 21 21 16 16 15 15 11 8 4 7 8 4 3 3 4
8 9 8 6 4 2 2 3 4 3 3 3 2 2 3 3 2 2 2 2 3 3 1 3 5 4 5 4 5 5 5 5 4 3 3 4 17 20 21 21 20 21 18 14 14 11 10 7 9 9 7 5 4 4
3 3 2 4 3 4 2 2 3 4 3 2 2 2 3 2 2 1 2 3 2 4 4 5 5 6 6 4 7 9 5 8 6 6 7 5 13 19 20 20 21 19 19 17 16 15 15 14 12 12 11 10 9 7
1 4 1 4 3 2 3 7 3 3 2 3 3 2 3 2 3 3 2 2 4 5 4 4 4 4 3 4 5 14 17 19 10 9 12 15 7 6 10 19 16 13 17 19 22 20 19 17 13 12 12 12 10 10
3 3 2 3 2 1 6 3 2 3 2 3 1 2 3 2 3 1 2 3 4 2 2 2 3 5 3 7 7 9 17 19 9 12 14 15 17 18 16 21 20 16 14 21 26 23 20 18 14 14 14 13 9 8
3 2 3 3 4 4 2 3 3 2 2 2 2 3 2 2 2 2 3 2 2 2 2 3 4 3 2 2 3 2 8 16 13 12 15 16 11 15 21 23 23 25 28 25 27 22 20 19 16 14 14 12 11 8
1 4 4 4 3 3 4 3 3 2 3 3 3 3 2 1 0 1 2 3 2 2 2 1 2 3 2 2 2 4 8 14 11 5 18 19 16 14 11 12 17 23 25 27 26 24 22 20 17 15 15 14 12 13
3 4 7 5 3 4 4 2 4 4 4 3 4 1 1 2 1 4 3 3 2 2 2 2 3 3 4 6 4 3 3 5 8 7 13 19 22 19 10 6 5 14 25 30 30 27 24 19 17 17 17 16 13 14
3 4 4 4 3 3 3 3 3 3 3 1 2 1 1 1 4 4 1 1 1 3 10 15 12 8 6 6 3 10 7 7 8 5 18 18 20 19 18 16 14 23 27 32 29 27 26 23 19 17 18 17 16 17
5 2 4 2 2 3 3 3 3 3 3 3 3 1 3 4 4 2 1 2 5 12 16 16 14 14 13 12 10 10 24 27 27 24 20 15 12 11 16 23 21 18 26 29 30 29 25 27 22 21 23 20 17 14
4 3 1 4 4 4 5 6 5 3 4 4 5 4 4 1 2 2 3 10 10 7 9 7 4 3 4 13 18 22 26 26 21 12 13 5 1 8 6 8 10 15 22 23 21 22 20 21 25 22 24 20 17 14
4 4 4 5 4 4 5 4 3 2 3 3 3 2 2 2 2 4 9 10 14 10 8 2 5 14 12 16 16 18 27 24 25 20 9 8 12 6 9 11 14 16 21 21 19 17 15 16 17 19 17 16 16 14
2 3 4 3 4 5 7 1 1 1 2 3 2 3 2 1 2 2 7 10 8 11 8 3 13 17 16 16 18 15 9 19 21 23 10 12 12 9 9 16 19 19 19 19 17 16 18 18 18 17 17 14 13 15
4 6 4 4 4 5 2 1 2 2 3 3 3 2 2 2 2 3 3 6 5 6 6 9 11 7 9 9 8 6 6 17 17 14 15 7 4 7 12 17 25 23 20 18 17 16 15 17 19 19 18 17 16 15
4 3 4 2 3 3 1 4 2 2 3 3 2 1 2 3 3 3 2 2 3 2 3 7 8 9 10 7 5 6 5 9 15 15 9 5 6 6 7 15 24 23 21 21 22 21 20 19 18 20 22 20 19 18

GFSWCAN_925_spd_096.txt.gz
Wind_Speed
23 20 17 16 15 15 12 12 12 11 8 10 10 10 11 12 12 6 3 11 2 2 3 1 2 3 1 2 2 3 3 4 4 4 3 2 2 2 2 0 1 3 3 2 2 2 4 11 6 3 2 2 5 8
21 19 17 16 15 14 13 12 12 11 7 9 10 9 9 9 10 7 3 9 3 2 3 2 4 2 1 5 5 1 3 4 4 4 1 2 1 2 2 1 2 2 4 4 4 4 4 3 5 4 4 2 3 7
20 19 18 17 15 14 13 11 11 10 5 7 9 8 7 7 8 7 4 11 1 3 4 4 2 6 5 6 1 3 2 2 2 2 4 2 4 3 2 3 1 3 2 2 2 2 4 5 4 4 5 3 7 8
22 22 21 19 17 14 11 10 10 10 5 6 8 7 6 6 5 4 4 9 2 4 4 4 4 3 4 8 11 7 6 5 6 3 3 3 3 2 2 2 2 2 3 2 2 4 3 6 6 4 6 9 12 8
24 24 21 19 16 13 11 9 9 8 5 5 6 5 5 4 3 2 5 9 7 2 4 2 3 4 4 11 15 15 10 4 3 3 3 1 1 2 1 2 2 0 3 3 4 3 2 4 5 6 3 5 6 9
19 19 17 15 14 11 9 8 8 7 4 4 5 5 4 2 1 3 4 1 8 2 3 1 3 1 3 10 15 13 8 4 3 3 2 1 1 2 2 1 4 3 2 3 2 2 2 0 3 5 3 3 4 6
15 14 12 9 9 8 7 8 7 6 4 4 5 6 4 0 3 3 3 0 5 2 3 2 2 3 0 3 4 4 7 3 3 2 2 2 2 3 2 2 4 3 4 2 1 1 4 4 2 7 7 4 5 2
12 9 6 5 6 5 8 7 7 4 2 4 5 5 3 2 1 4 2 3 1 3 3 3 2 2 2 1 2 4 2 3 5 2 1 2 2 2 1 5 3 3 4 1 1 3 2 1 3 5 6 4 1 1
8 8 6 5 5 7 7 6 6 3 2 4 4 3 2 1 2 2 1 1 1 1 3 2 4 4 2 1 2 3 2 3 2 2 1 2 1 2 6 6 5 5 5 6 3 4 5 4 3 3 3 4 2 4
6 4 2 2 4 5 6 7 3 2 4 3 1 2 2 2 1 2 2 3 3 3 2 2 1 1 3 1 1 2 2 1 1 2 2 2 3 5 6 7 5 6 6 7 4 0 1 2 2 3 2 2 2 2
4 3 2 3 4 2 3 3 1 2 1 1 1 1 1 1 2 3 1 1 1 1 1 2 3 3 1 2 3 1 2 0 2 3 2 2 3 4 5 8 7 8 7 7 5 3 6 5 4 3 2 1 3 4
5 2 2 4 4 1 0 2 1 1 2 1 2 1 2 3 3 1 2 1 3 5 2 4 4 3 1 2 3 0 3 1 2 2 2 2 4 5 5 7 7 10 10 8 9 9 8 9 9 5 3 4 4 5
6 3 2 2 1 2 4 4 2 3 0 1 1 2 3 1 2 4 5 3 2 4 4 3 2 3 2 3 3 2 2 3 2 2 3 4 4 4 7 5 5 9 10 9 6 7 8 11 8 7 6 5 5 6
6 3 3 4 2 2 1 4 5 2 1 1 3 2 4 3 4 5 4 4 4 3 5 3 3 2 1 3 2 3 1 3 0 1 5 4 7 7 6 5 6 6 7 7 5 5 3 5 6 5 2 1 3 5
5 3 2 4 7 3 2 1 2 1 2 2 2 4 5 4 3 4 3 2 2 4 5 4 3 2 1 3 1 3 3 3 5 5 4 5 6 7 7 6 7 7 6 7 7 7 7 7 7 6 3 2 3 5
5 2 2 1 1 2 2 2 1 1 0 2 3 2 2 1 3 1 3 3 3 4 3 3 3 2 3 4 3 6 5 6 4 4 5 3 4 6 7 7 9 14 14 11 11 10 8 7 5 2 1 3 5 4
2 3 3 1 2 2 1 1 1 2 3 3 4 3 2 3 5 4 3 3 8 3 4 3 5 7 2 3 3 5 5 5 5 5 4 6 7 8 7 10 14 15 14 13 12 9 7 6 4 2 1 2 3 4
4 4 1 2 3 1 0 2 1 2 5 4 3 3 3 3 3 3 3 3 4 3 4 5 4 5 5 5 4 4 5 4 4 4 3 4 5 13 17 14 18 19 18 17 12 12 10 8 5 3 3 3 3 4
6 6 2 4 2 1 1 2 3 3 5 3 3 2 3 4 4 3 2 4 4 2 4 3 3 4 5 4 5 4 4 4 5 4 3 7 14 18 20 21 23 22 21 18 16 15 11 8 9 9 6 6 5 4
9 8 8 6 3 1 1 3 3 2 3 3 1 2 3 3 2 1 1 3 4 3 1 4 5 4 5 4 5 4 4 4 4 3 2 3 13 19 20 21 20 24 20 14 14 13 12 10 13 11 8 7 5 3
5 4 3 5 4 4 2 2 3 4 3 2 2 2 3 1 2 1 2 3 2 3 3 4 5 7 7 7 7 6 4 7 7 6 5 4 12 17 17 17 24 22 18 16 14 15 17 16 15 15 12 10 9 9
3 6 2 4 3 3 2 6 3 3 1 3 2 2 2 2 2 3 3 2 3 4 4 3 2 2 3 5 6 15 16 14 9 8 11 16 6 6 12 18 18 14 17 19 20 17 20 18 15 13 13 12 11 10
3 4 2 1 0 0 6 2 2 3 3 3 1 2 2 2 3 1 2 3 3 3 3 3 3 5 5 8 6 7 8 12 6 9 12 11 15 18 18 19 22 17 12 20 24 24 21 18 16 14 13 12 11 9
3 2 2 3 4 4 2 3 3 3 2 2 2 3 2 2 0 2 3 3 3 1 0 2 2 4 3 4 3 3 6 9 6 7 15 15 9 13 21 23 25 27 27 23 26 24 21 18 16 14 14 12 10 10
1 3 3 3 2 3 3 3 3 3 4 4 3 3 1 1 1 1 2 3 2 1 2 1 1 2 3 3 3 4 3 10 9 4 11 14 14 15 13 17 22 24 24 17 20 24 22 19 18 17 16 14 14 13
2 3 6 5 3 3 3 3 4 4 2 2 4 1 1 2 1 4 3 2 2 2 2 2 1 3 3 3 3 2 6 8 13 8 10 17 19 18 8 5 4 14 20 23 24 25 24 23 22 21 20 18 15 13
4 4 4 3 2 2 3 3 3 1 2 2 2 2 1 2 3 3 2 1 2 2 5 9 10 7 6 7 4 3 6 11 10 15 21 25 20 16 20 17 14 19 21 23 25 28 30 28 26 24 23 19 17 16
4 2 5 3 3 3 2 2 3 3 4 2 3 2 2 4 3 2 3 3 7 11 12 11 8 9 11 9 6 10 10 15 20 25 16 11 20 15 11 11 12 11 9 22 27 28 30 28 27 25 22 18 16 15
3 2 2 3 2 3 4 5 4 3 3 3 3 3 3 2 2 2 3 6 7 8 8 9 6 3 7 9 13 19 24 25 19 9 10 7 3 12 12 14 13 15 16 17 27 29 29 26 24 24 22 19 18 16
4 4 3 3 4 5 4 5 2 2 1 2 1 2 1 1 2 2 3 4 5 6 9 5 1 12 12 12 14 15 18 19 17 16 8 6 11 15 8 5 3 5 11 15 19 20 19 18 19 17 18 17 18 17
2 3 3 3 4 4 5 4 2 1 0 2 2 2 1 1 2 3 2 6 5 7 8 1 7 11 15 14 12 10 9 19 12 11 14 4 13 12 8 6 6 6 8 11 13 14 13 13 15 17 19 20 18 17
4 6 4 4 4 3 4 4 1 2 2 2 2 1 1 1 2 2 1 5 6 6 6 0 8 7 10 13 11 12 5 11 12 11 11 11 12 9 9 11 13 14 15 16 16 15 15 15 15 17 18 17 16 16
3 3 4 3 4 4 1 3 2 2 2 2 2 1 0 1 2 2 1 2 3 2 2 1 4 8 7 9 9 8 5 2 8 13 14 7 5 8 11 14 19 22 21 20 18 16 15 14 16 18 19 19 19 19

GFSWCAN_925_spd_099.txt.gz
Wind_Speed
25 23 19 16 15 14 14 13 13 12 7 7 9 9 9 10 12 4 1 8 0 2 2 2 2 2 2 0 2 1 2 2 1 2 0 1 1 1 1 1 1 1 1 2 2 3 1 13 4 4 5 6 3 8
25 20 19 17 15 14 13 13 12 11 8 6 8 8 8 8 9 6 2 7 2 1 3 1 4 4 2 2 1 1 2 0 1 3 1 2 1 1 1 2 1 1 2 1 2 3 4 7 5 7 4 6 3 5
24 21 21 20 18 16 14 12 12 10 10 5 7 7 6 6 7 6 3 7 1 1 2 2 3 4 7 6 0 2 2 3 3 2 3 2 1 2 2 1 1 2 1 1 2 2 4 8 7 8 8 1 6 10
23 23 23 22 19 16 14 12 11 10 9 5 6 6 5 5 5 4 3 5 2 3 2 2 3 4 6 6 8 4 6 6 5 1 2 2 1 2 1 1 2 1 1 2 2 2 2 4 8 7 7 5 11 10
22 22 20 19 17 14 12 10 10 10 8 5 4 4 4 3 3 1 3 7 4 2 2 2 1 3 4 6 14 11 8 3 2 2 2 2 1 2 1 1 2 2 2 1 2 2 2 2 6 5 4 6 8 11
18 16 16 17 15 12 10 8 9 10 8 4 3 3 4 2 1 2 1 1 6 2 1 3 2 1 3 6 12 12 8 4 3 2 3 2 2 2 1 2 2 2 2 2 2 3 4 4 6 7 5 4 5 6
15 15 15 12 9 7 7 7 9 9 7 4 2 3 3 2 4 2 1 0 3 1 1 3 3 1 1 2 3 3 5 3 3 2 2 1 1 3 1 2 6 6 3 3 1 2 5 7 5 8 7 5 6 6
12 11 10 9 7 6 5 8 8 8 5 4 3 3 2 3 2 2 1 1 2 3 0 2 2 2 1 1 2 3 2 1 4 2 2 1 2 2 2 3 5 3 1 1 4 5 5 4 5 7 7 6 3 3
10 10 9 8 8 6 7 8 8 6 4 4 3 2 3 2 2 2 2 1 2 1 2 2 4 3 1 2 1 2 1 2 1 1 2 1 1 3 4 6 9 6 4 6 5 4 5 6 4 4 3 4 4 4
8 7 6 4 2 5 6 6 6 5 4 3 3 3 2 3 4 3 1 2 2 0 1 2 1 3 2 2 2 2 2 1 1 2 1 1 3 4 6 7 8 8 5 7 5 2 2 3 3 4 4 3 2 3
6 5 4 1 2 2 5 7 6 3 3 3 3 1 4 5 3 1 2 3 2 3 3 2 4 4 2 2 2 1 2 1 1 2 2 1 3 4 8 10 9 8 9 8 4 3 3 1 2 3 3 3 4 5
8 5 3 0 1 0 3 5 5 3 3 4 4 3 3 2 1 2 2 1 4 3 4 4 3 2 3 1 2 2 1 2 1 3 2 2 3 6 9 12 12 13 12 10 10 8 8 7 6 5 4 2 2 1
8 7 5 4 2 2 1 1 5 5 4 3 1 2 1 2 1 5 6 3 3 5 5 5 4 2 3 2 3 2 3 2 3 2 2 4 1 4 9 9 11 13 13 10 9 9 7 8 8 9 6 4 2 1
8 6 4 6 4 3 2 1 3 5 1 2 3 1 4 4 4 5 4 2 2 3 8 6 4 2 2 3 2 3 2 3 2 3 4 3 7 10 10 9 9 13 13 12 10 9 7 7 7 6 4 3 2 2
7 6 3 4 5 4 4 2 1 3 3 2 3 4 6 4 3 2 3 2 3 5 7 5 4 1 2 3 1 3 3 3 4 4 3 5 6 7 10 12 11 11 10 11 12 10 8 10 10 9 7 5 3 2
7 5 4 2 4 4 5 3 2 2 2 2 3 4 3 2 3 3 4 4 4 6 3 2 3 3 3 3 4 6 3 5 3 4 6 3 5 7 9 11 13 15 15 14 12 11 10 10 9 8 6 3 2 2
5 3 4 4 2 1 4 3 4 3 3 3 3 4 4 3 4 2 3 2 8 7 5 3 5 4 3 3 3 4 5 4 6 5 4 6 7 8 9 13 16 17 17 15 14 12 10 9 9 7 4 2 2 2
3 3 4 1 2 3 2 5 2 2 5 4 3 3 3 3 2 2 2 4 5 3 4 5 4 5 5 5 3 4 6 5 4 6 5 4 6 10 14 16 18 19 17 16 14 13 12 10 8 5 6 6 6 6
9 7 5 3 2 2 2 3 3 3 5 2 3 3 3 3 4 3 2 4 2 0 2 4 4 4 4 4 6 7 6 5 6 3 4 8 10 13 16 18 18 18 18 18 16 14 12 10 7 10 10 9 7 6
10 9 9 7 5 2 2 2 3 3 3 1 3 3 3 3 1 1 3 4 5 4 4 4 5 4 4 5 6 6 5 3 3 3 4 4 7 11 11 19 20 20 18 15 13 14 12 10 11 11 11 10 8 6
8 8 5 6 5 4 2 2 3 3 3 3 0 2 2 2 3 4 4 5 4 3 4 4 5 7 5 6 6 7 8 8 7 7 4 4 10 11 16 14 19 22 19 17 15 13 13 12 16 13 11 9 8 6
4 9 4 5 3 3 3 5 3 2 2 2 2 2 3 2 3 2 4 3 3 3 4 3 2 3 5 5 5 6 9 8 10 6 6 12 6 7 11 17 16 14 16 17 17 15 15 13 13 13 12 10 9 6
6 5 2 2 3 1 4 2 3 3 3 2 1 2 3 3 1 2 3 3 3 2 3 3 3 3 5 8 7 7 6 8 6 9 11 10 7 15 19 20 20 17 13 14 16 16 15 16 17 13 11 9 8 6
4 3 3 3 3 3 1 3 3 3 2 3 2 3 2 2 2 2 3 2 1 1 2 3 2 3 3 4 3 5 6 6 8 7 10 12 8 15 21 22 21 20 22 24 19 15 14 15 15 14 12 10 9 7
1 1 3 3 3 3 4 3 3 3 3 4 3 3 2 2 3 3 2 2 1 2 2 1 2 2 4 6 4 6 3 3 4 4 7 12 11 14 15 16 14 17 19 17 16 16 15 15 15 14 13 12 9 8
2 3 5 4 3 4 2 2 3 4 2 3 4 1 1 1 2 1 1 1 2 1 1 2 2 3 5 5 4 3 4 3 4 3 5 11 14 15 10 8 6 15 18 18 15 16 18 18 17 16 15 14 12 9
3 3 3 3 2 2 3 4 3 2 3 3 2 4 2 2 2 2 0 1 1 1 4 6 8 8 8 9 8 4 3 2 3 4 11 15 16 24 32 21 19 18 16 19 18 18 19 19 18 17 16 13 11 11
3 1 4 2 3 3 3 3 2 3 2 0 1 1 2 1 0 1 1 1 2 7 9 9 8 7 8 7 3 4 8 12 18 21 21 19 18 19 11 8 7 13 14 18 19 17 18 19 19 18 17 15 12 11
3 2 2 3 4 3 3 4 3 1 1 2 1 1 2 0 1 0 0 1 4 4 6 6 4 4 5 6 4 4 10 17 16 11 12 9 4 9 10 7 8 10 11 10 15 17 18 18 19 19 18 15 11 10
4 5 3 3 4 5 3 4 1 1 2 3 2 1 1 1 1 1 1 3 4 4 4 3 2 1 3 4 5 6 5 7 6 7 7 7 8 12 10 8 6 6 10 11 11 13 17 14 15 13 13 12 12 12
2 5 4 5 4 5 8 7 7 6 3 1 1 1 1 1 1 3 3 3 3 3 3 0 3 4 3 5 6 6 5 8 5 4 3 2 0 7 7 6 5 6 8 9 10 11 12 14 15 15 15 15 15 16
5 7 4 4 4 6 6 4 3 1 0 1 1 1 1 0 2 1 2 1 2 3 3 1 3 4 5 5 6 6 2 2 7 9 9 8 6 9 9 7 7 7 8 9 9 9 10 10 10 11 11 12 13 14
4 4 5 4 3 3 4 4 3 2 1 0 0 0 1 1 2 3 3 2 1 1 0 0 2 3 3 5 6 6 9 11 10 9 10 10 10 9 7 9 11 12 12 11 11 10 10 8 8 8 9 11 12 12

GFSWCAN_925_spd_102.txt.gz
Wind_Speed
23 23 22 18 17 16 16 16 15 14 11 6 7 9 8 8 9 5 1 5 2 1 5 1 2 0 2 2 4 4 6 5 4 3 3 2 3 1 4 3 5 6 3 4 4 5 5 14 3 6 6 6 8 6
25 25 23 18 18 17 17 17 14 14 11 8 6 7 7 6 7 5 2 3 1 4 6 4 7 5 5 6 6 2 5 2 3 1 2 2 2 3 4 4 2 3 3 2 4 3 4 6 6 6 6 3 5 4
25 26 23 19 19 19 18 17 16 13 12 10 5 6 6 5 5 5 3 4 2 4 5 8 7 4 4 5 5 4 2 2 2 3 1 1 3 2 3 2 2 4 2 2 6 5 6 8 9 11 7 2 6 7
24 24 21 20 18 17 16 15 14 12 12 10 5 5 4 4 3 2 1 4 3 2 3 5 5 4 3 4 5 3 4 3 3 3 2 2 2 1 1 2 6 3 5 5 5 6 5 8 10 9 10 7 10 8
22 20 18 15 15 16 15 14 13 11 12 10 5 4 4 4 2 2 2 2 1 4 2 4 6 4 4 4 7 5 2 2 3 4 4 1 1 3 2 2 4 4 1 3 2 6 2 6 6 7 7 8 8 11
17 16 15 14 15 14 12 11 11 10 11 9 5 4 4 3 2 3 4 3 1 1 3 4 4 7 6 4 5 6 4 1 1 2 2 2 2 3 2 2 3 2 2 3 4 5 6 7 6 5 6 5 4 7
12 12 12 11 10 8 6 8 8 9 9 8 5 4 4 3 4 4 4 3 2 0 3 3 4 5 6 5 2 2 2 2 3 1 1 1 3 3 2 3 6 6 6 6 7 8 6 4 4 5 5 6 4 7
10 10 10 10 8 6 6 6 8 7 9 6 5 3 3 4 3 4 2 1 2 3 3 3 3 5 8 5 4 1 1 2 2 1 2 2 2 2 3 6 7 9 8 7 6 2 6 6 4 3 3 4 5 5
7 8 8 8 5 6 6 6 8 6 6 5 3 3 3 3 5 3 3 1 2 4 3 3 4 3 5 3 0 3 2 2 2 2 2 2 1 4 6 7 11 12 10 10 9 7 6 4 4 3 3 3 3 4
5 6 6 5 2 2 5 6 6 6 5 3 4 5 4 5 5 6 2 4 5 5 3 5 1 4 5 4 4 2 1 1 2 2 2 4 4 7 5 6 9 10 8 10 10 8 6 6 5 5 4 3 2 2
6 4 3 1 2 1 5 6 6 4 3 4 6 1 4 9 4 4 4 5 5 5 5 6 6 5 3 5 3 1 1 0 2 4 3 2 3 5 10 10 9 10 10 9 5 4 5 5 5 6 6 7 6 5
6 5 3 1 1 0 2 5 6 5 3 3 3 4 5 4 3 4 5 4 5 5 5 8 7 2 4 2 3 3 1 2 2 2 3 2 3 5 10 13 13 13 12 10 9 8 7 6 5 4 4 4 3 3
5 5 4 3 2 2 1 2 6 6 3 2 4 5 3 4 2 6 8 5 4 6 6 7 8 5 4 4 1 3 4 2 1 3 3 5 6 7 10 11 14 16 15 13 12 11 9 8 7 8 7 6 4 4
5 5 3 4 4 2 2 1 3 6 2 3 5 1 5 5 5 5 6 4 3 4 9 10 7 4 3 5 2 3 2 3 3 3 4 4 8 9 10 11 12 15 15 15 14 12 11 10 8 8 8 8 7 5
5 6 2 3 4 2 2 3 2 4 3 3 4 4 7 6 2 3 3 3 4 6 9 8 5 4 5 4 3 2 4 4 4 4 3 3 7 8 11 13 14 14 14 14 16 12 11 9 8 7 7 7 5 5
5 4 3 3 5 2 2 2 1 2 3 3 4 5 4 5 6 6 5 5 6 8 8 6 4 4 5 3 5 7 3 4 3 3 3 4 5 9 11 12 13 16 17 16 15 13 11 9 8 9 8 6 5 4
4 2 6 4 3 3 5 2 2 4 4 4 5 5 6 5 4 4 3 5 8 9 8 5 6 6 3 4 4 4 4 3 3 2 2 4 7 9 10 12 16 17 17 17 16 14 11 9 9 9 8 5 3 2
5 4 6 4 3 4 3 5 4 4 6 6 5 5 5 5 4 3 4 4 6 9 8 6 3 7 5 6 6 5 5 5 5 6 7 5 7 10 13 14 18 19 19 18 17 15 14 13 11 10 7 7 8 9
8 7 6 2 1 2 3 5 5 4 6 4 6 6 5 5 4 4 3 5 6 2 3 4 5 7 8 8 9 8 6 5 6 6 5 6 8 10 13 14 15 19 20 19 19 16 14 13 10 9 10 13 11 9
10 12 8 6 3 3 3 3 4 4 4 0 4 5 5 5 2 4 5 7 7 4 5 5 9 8 7 7 6 7 7 6 5 8 9 7 9 13 16 17 18 20 15 18 18 16 15 12 11 13 14 11 10 9
7 8 7 5 4 5 3 3 4 3 3 4 2 3 5 5 6 7 7 6 6 4 7 8 10 10 10 8 7 8 8 8 8 9 10 8 9 13 14 18 21 21 17 17 15 14 16 12 14 14 14 12 9 7
4 11 5 6 4 2 4 5 4 2 3 3 3 4 4 5 6 7 4 7 5 8 8 8 7 6 5 7 7 7 10 10 10 11 8 8 7 8 11 17 18 14 18 18 18 17 14 13 14 14 14 11 8 8
8 7 4 4 5 4 4 3 5 4 4 3 3 3 4 4 3 3 5 7 8 7 5 6 4 6 6 8 8 10 10 10 8 9 9 9 9 11 15 18 23 23 15 16 17 18 16 15 15 14 14 12 11 10
5 5 3 4 5 3 3 4 4 3 4 5 4 4 4 3 4 4 6 8 6 2 5 5 5 4 5 7 7 5 6 7 9 9 7 7 5 6 12 15 17 19 25 24 20 15 17 18 18 16 15 15 13 10
1 2 3 3 4 3 4 3 4 4 4 5 4 4 3 3 3 4 3 0 3 4 3 3 3 4 5 5 5 6 5 7 7 5 2 6 6 10 10 11 20 26 26 25 20 23 20 19 19 18 18 16 13 11
2 5 5 6 4 4 4 3 3 5 4 4 5 2 2 3 3 2 3 3 2 1 1 2 4 4 5 6 6 6 7 5 6 6 2 6 10 16 12 10 8 16 23 24 21 20 21 21 20 18 17 16 12 10
2 3 4 3 2 3 4 5 3 4 3 2 1 3 3 3 2 2 1 1 1 1 3 5 7 7 7 9 8 8 5 5 4 4 4 8 17 22 22 22 20 22 23 22 19 19 21 21 20 19 17 17 16 16
4 2 7 5 6 4 4 4 3 3 2 1 3 2 0 1 3 2 3 2 3 4 5 6 6 5 6 5 3 2 2 4 7 10 12 9 7 8 9 16 24 16 14 17 18 18 19 19 20 18 18 16 15 13
4 3 4 7 7 5 6 4 4 1 1 1 2 3 3 2 1 1 1 1 3 5 5 4 2 1 4 6 5 5 8 10 11 7 6 6 6 10 10 11 12 10 12 13 16 15 16 18 20 19 18 16 14 13
6 6 5 6 9 6 5 5 2 3 3 4 4 4 2 2 2 3 1 2 4 4 4 3 0 2 4 8 9 8 6 4 2 2 3 4 5 8 13 11 9 7 9 11 12 17 16 15 13 15 14 15 13 12
1 5 7 8 8 7 8 6 6 7 7 6 4 5 5 1 3 3 2 2 3 3 3 1 4 4 5 6 6 6 6 4 3 1 1 2 1 7 13 12 8 7 11 14 14 16 18 19 19 18 19 19 17 16
6 6 5 6 5 6 7 6 6 8 4 3 5 3 3 3 2 2 3 3 4 1 3 1 2 4 3 3 4 2 1 3 1 3 5 4 3 8 11 10 9 9 10 11 12 13 15 18 19 20 20 19 19 17
7 6 5 4 3 4 6 5 4 4 5 2 0 1 2 1 2 2 3 2 3 4 4 3 1 2 3 3 4 5 6 4 7 9 7 6 6 11 12 10 9 8 9 9 10 10 11 12 13 13 15 15 16 16

GFSWCAN_925_spd_105.txt.gz
Wind_Speed
22 21 22 23 22 18 17 16 15 14 14 11 10 9 9 9 10 11 4 3 5 7 7 3 1 1 2 5 7 7 7 7 6 4 5 4 4 3 7 9 10 5 6 6 5 4 8 11 4 5 6 5 8 7
23 23 22 24 23 20 18 18 17 14 12 11 10 7 9 7 7 8 7 1 4 8 7 2 4 3 2 4 6 3 6 5 5 4 2 5 1 5 7 8 4 6 6 3 5 2 4 8 8 6 5 2 7 7
24 22 23 24 23 20 18 16 16 15 12 11 10 7 7 7 6 5 8 4 6 6 6 8 9 3 1 3 5 7 1 5 3 5 7 2 1 3 5 6 8 3 1 6 1 4 8 7 7 8 6 6 8 9
23 22 23 23 21 18 15 15 15 13 11 10 9 8 7 7 6 6 9 3 7 9 7 11 8 7 2 4 4 4 4 3 5 5 7 5 4 1 5 3 6 6 5 2 3 5 6 6 7 8 9 7 9 11
20 21 21 18 17 15 17 15 14 12 10 9 8 7 8 6 6 6 8 6 7 7 4 6 11 8 8 3 2 4 3 4 5 6 6 7 2 1 6 5 7 6 1 3 5 9 5 6 5 5 7 9 8 10
18 18 16 14 14 15 15 13 10 10 9 9 7 6 7 6 5 5 5 9 5 5 5 4 10 6 7 5 3 2 4 3 5 4 2 2 3 4 3 3 1 3 1 3 4 4 5 7 5 5 6 6 11 12
15 13 13 13 13 12 10 6 7 7 8 8 7 6 7 6 6 7 5 4 3 3 4 4 4 8 11 8 9 4 3 2 6 1 3 3 4 4 6 3 2 4 5 5 7 8 7 8 6 5 6 7 4 14
11 11 11 12 11 11 8 8 6 7 7 8 5 5 6 5 6 9 5 2 3 9 5 4 3 5 11 8 4 2 5 3 5 3 1 4 3 2 3 8 7 8 8 8 8 6 3 7 5 5 6 8 6 7
8 9 10 10 9 8 7 7 6 5 8 6 4 4 2 5 7 5 6 3 5 6 3 5 9 3 7 8 4 5 2 4 3 4 3 2 2 3 7 8 7 9 9 9 8 6 5 7 6 5 5 5 8 8
8 7 8 8 7 4 7 7 7 8 6 5 3 6 5 6 4 6 4 5 6 6 5 6 8 4 7 6 4 3 3 4 3 3 3 5 6 12 8 5 6 10 10 8 9 7 6 5 5 5 6 5 6 3
8 7 7 6 3 2 5 7 7 8 6 4 6 0 5 11 7 5 5 5 6 5 6 8 11 6 3 5 3 1 2 2 3 4 3 3 5 8 10 8 7 9 9 8 7 5 6 5 5 5 4 3 2 2
8 8 7 7 4 2 5 7 8 7 4 3 2 2 6 5 5 5 6 5 5 8 5 10 9 5 5 2 3 3 3 2 4 3 3 2 4 8 10 11 10 10 11 9 7 6 6 6 6 5 7 7 6 4
7 8 7 8 7 5 4 7 10 9 3 3 5 4 4 4 0 6 10 6 6 5 5 7 8 5 3 6 2 2 4 5 2 3 2 6 9 8 9 9 11 14 13 11 9 9 8 8 6 6 5 5 5 4
7 7 7 6 6 5 4 4 6 7 2 3 4 1 5 6 6 8 10 9 7 5 9 9 9 6 4 5 4 4 3 0 4 4 5 5 10 10 10 10 11 13 13 12 12 12 10 9 8 8 7 7 8 8
7 6 7 3 4 3 4 5 6 5 2 3 4 4 9 8 5 5 6 1 4 5 9 10 8 5 6 4 4 3 4 4 4 4 3 8 9 9 10 11 12 12 13 12 15 13 13 12 10 8 7 7 8 5
7 5 4 4 4 3 2 3 3 4 3 3 5 7 6 6 8 8 7 8 8 7 9 8 7 5 5 4 5 7 4 4 3 4 1 8 7 7 9 11 11 14 15 16 16 15 13 10 9 9 7 9 7 7
3 1 4 3 5 6 3 3 5 5 4 5 6 8 7 9 6 6 8 7 9 8 9 7 6 6 4 4 5 5 8 5 1 3 3 6 4 8 9 11 14 16 16 17 17 16 14 12 10 9 10 9 8 7
4 5 5 5 3 1 2 5 2 3 7 7 7 7 7 5 8 6 2 3 5 10 9 6 3 7 6 9 8 5 5 3 4 4 5 2 2 6 11 11 15 17 17 16 16 16 15 13 12 11 11 11 9 7
6 9 8 6 5 4 5 7 5 4 9 7 9 9 5 5 5 7 3 5 8 2 4 3 3 8 8 7 8 4 8 5 3 2 3 13 8 10 13 13 14 15 14 12 11 10 12 13 12 13 13 11 13 12
9 11 10 7 4 5 4 3 6 5 4 4 8 8 8 8 7 8 8 6 8 7 7 6 7 7 6 6 7 7 3 2 4 9 8 9 12 12 13 14 16 18 20 21 20 18 12 11 10 9 11 14 13 12
5 8 12 7 5 6 4 3 6 5 5 5 7 9 6 7 9 8 8 9 8 10 9 9 11 10 5 13 9 9 7 8 8 10 11 11 16 12 8 12 17 24 20 23 23 20 19 16 15 15 13 15 11 11
5 13 5 7 2 3 4 8 5 5 4 4 6 7 6 8 8 9 9 10 11 9 10 11 10 6 5 7 4 6 11 13 14 16 17 16 10 10 8 15 17 15 19 22 22 22 21 20 18 16 17 15 11 11
9 7 4 4 3 5 6 8 5 5 4 4 7 5 6 7 7 4 6 8 8 9 12 12 9 2 6 12 9 9 12 12 9 14 13 10 13 12 10 9 12 12 12 14 20 19 16 19 17 17 16 15 14 12
6 5 5 5 6 5 5 5 4 3 5 10 4 6 6 2 4 4 8 10 9 8 8 1 5 6 9 12 9 6 7 10 9 9 9 6 4 3 1 6 16 21 25 28 23 22 20 18 18 16 17 17 17 14
3 5 4 5 7 5 5 5 9 5 6 10 9 4 3 3 3 4 6 3 3 3 2 5 7 8 8 6 5 2 4 6 8 8 9 2 1 7 6 8 13 19 26 27 22 22 20 22 19 19 19 19 17 14
4 6 6 8 4 5 3 2 4 6 2 2 1 3 1 3 5 1 3 4 3 3 3 3 5 5 5 5 7 5 4 5 10 8 10 4 4 11 8 8 7 14 27 27 24 23 22 19 24 21 19 18 11 9
3 4 5 4 2 4 4 5 6 2 4 3 1 2 3 4 2 2 4 6 1 1 2 4 6 6 6 8 9 6 6 7 6 7 5 3 3 5 12 15 18 23 29 26 25 24 26 26 23 20 19 18 17 16
3 3 7 7 7 5 2 3 3 3 4 3 3 2 2 2 2 4 4 10 3 2 4 4 3 4 4 5 2 1 1 1 3 4 6 7 6 6 7 8 18 28 27 25 29 29 25 22 19 19 18 17 16 19
6 6 7 7 5 2 4 6 3 2 3 2 3 2 2 2 3 3 5 3 2 4 5 2 3 3 5 5 4 3 4 7 8 6 4 3 5 7 10 17 21 26 26 24 26 19 11 19 21 20 19 16 15 15
6 5 6 7 9 6 6 4 4 2 5 0 3 5 3 4 7 4 3 2 2 3 3 2 2 5 5 6 6 4 6 4 4 4 5 4 4 10 18 25 27 26 27 24 22 20 16 9 9 13 16 17 16 15
3 4 7 9 7 8 6 5 7 4 7 7 5 2 5 1 5 3 2 1 1 1 3 3 6 5 5 4 4 5 5 3 3 2 4 1 7 13 12 15 15 13 14 16 17 20 20 18 19 20 19 18 15 13
4 6 5 7 9 9 8 7 7 6 6 5 4 5 5 2 4 4 2 2 6 3 4 4 2 2 2 5 2 2 3 4 2 3 4 5 4 11 17 16 14 10 12 15 15 15 18 19 21 19 19 19 18 18
6 6 6 6 5 4 7 6 6 6 5 3 2 3 5 4 3 3 4 0 6 7 6 5 4 3 2 4 4 3 4 6 2 5 5 6 7 7 8 11 11 10 11 12 13 14 15 18 19 20 21 20 19 21

GFSWCAN_925_spd_108.txt.gz
Wind_Speed
25 24 24 23 22 23 23 21 19 19 17 16 15 11 10 10 12 15 15 8 7 7 6 1 2 4 3 4 8 7 7 2 7 7 7 4 4 6 7 10 10 9 3 3 4 5 10 5 6 7 2 1 6 5
25 24 23 24 23 23 24 21 20 18 17 15 15 12 9 9 9 12 9 6 6 6 5 4 5 1 2 4 6 7 8 5 5 6 7 5 7 3 3 5 11 2 5 2 2 1 6 10 12 6 3 5 10 11
24 23 23 24 22 23 23 20 17 16 16 14 14 13 9 8 8 10 10 12 11 7 10 9 9 5 2 3 5 5 5 7 3 4 7 7 2 2 5 5 8 9 14 3 10 6 10 10 7 7 11 15 13 16
21 22 23 22 22 22 20 18 16 15 15 15 12 12 10 9 8 10 8 14 10 10 8 4 14 8 4 4 3 5 6 3 6 4 6 7 7 2 4 4 4 3 1 1 4 17 16 5 6 6 11 13 14 17
18 18 19 19 19 17 16 17 17 16 15 13 11 10 9 8 8 10 12 14 12 8 7 4 11 10 7 6 2 4 6 6 6 6 6 5 5 4 3 5 6 3 6 1 2 3 4 7 3 5 14 12 10 12
14 15 15 15 14 15 15 15 16 14 12 11 10 9 8 7 7 4 4 13 11 11 5 7 5 10 11 8 5 2 6 4 5 6 5 2 6 2 4 2 5 9 6 8 4 9 11 7 4 6 6 13 13 11
11 12 12 11 13 13 14 12 10 7 8 9 9 8 7 7 7 6 4 5 5 2 4 4 4 8 10 8 10 7 10 2 3 7 1 5 3 2 4 6 5 4 5 1 6 6 5 6 6 7 6 8 16 18
9 9 10 11 12 12 12 10 9 8 8 9 8 6 5 7 8 10 14 6 4 6 8 5 3 6 14 7 7 2 7 6 6 5 1 4 5 1 2 7 8 3 6 5 5 7 5 8 6 5 8 6 6 13
9 8 9 10 10 10 9 7 7 7 7 7 5 3 2 6 5 6 8 3 7 5 4 7 11 3 4 6 5 4 2 6 3 5 6 3 3 2 6 7 8 6 7 8 7 5 5 5 5 5 5 7 7 13
9 9 9 9 9 8 6 6 6 6 6 4 4 4 4 7 7 8 4 4 5 4 5 7 9 6 4 7 5 4 3 4 2 0 4 4 7 11 10 9 6 6 8 9 9 7 4 5 3 3 5 7 6 5
8 9 10 9 8 6 4 5 6 6 4 4 6 1 4 12 6 4 6 6 6 5 7 11 12 1 4 3 1 3 2 2 2 4 2 4 4 7 13 10 6 7 10 10 6 7 7 6 5 4 2 2 3 5
9 9 10 9 8 6 5 6 8 7 2 4 8 4 6 5 5 6 5 5 6 11 5 12 12 8 6 1 4 4 3 4 4 5 3 3 4 10 11 11 10 9 11 9 9 7 6 6 7 7 7 5 6 5
9 8 9 10 8 7 6 6 9 13 11 6 5 3 3 4 1 6 10 8 8 4 9 8 11 6 3 4 3 2 3 5 1 3 3 5 8 8 8 9 10 11 12 12 10 9 9 9 8 8 9 9 5 7
9 9 9 10 6 6 6 5 6 6 4 4 5 4 5 6 7 9 11 9 8 11 7 9 10 4 4 6 4 5 5 2 3 5 7 6 11 10 9 9 9 11 12 11 11 11 12 10 11 9 7 7 7 9
10 9 9 6 4 5 4 4 4 4 5 4 4 4 8 9 8 9 12 11 8 9 9 8 5 6 8 4 4 3 5 4 4 5 2 10 12 10 10 10 10 11 11 11 14 13 13 13 13 13 12 9 7 8
6 7 9 5 5 6 4 3 3 4 4 4 5 7 9 9 9 7 9 5 3 7 6 9 8 6 5 5 8 8 4 5 5 4 9 10 11 10 9 9 9 13 14 15 16 16 15 15 15 11 9 8 5 5
5 3 4 5 7 7 6 3 3 4 3 4 5 9 10 5 8 9 7 8 7 8 8 5 5 7 5 8 12 7 11 9 3 5 8 11 10 8 8 8 12 13 13 15 15 15 15 15 12 9 8 8 7 8
5 7 7 5 6 7 4 4 3 4 8 7 9 9 8 6 8 6 4 5 6 7 9 8 7 6 7 9 9 5 5 3 1 5 6 8 7 6 8 8 12 13 14 15 15 15 16 12 10 9 10 10 9 7
6 8 9 8 5 2 4 4 5 4 8 7 7 8 9 9 9 4 3 6 12 1 3 1 3 6 8 5 6 6 5 5 3 2 3 6 7 9 12 13 15 15 16 15 17 18 17 18 17 16 14 13 13 13
9 7 9 7 6 4 4 5 7 5 5 4 10 10 10 10 9 8 7 11 7 3 2 4 6 9 6 5 3 3 5 7 5 8 5 5 7 21 15 15 14 15 16 16 15 19 19 19 18 16 14 12 13 14
5 7 11 9 4 7 4 3 5 4 6 7 5 9 9 9 9 9 8 9 5 7 9 6 10 8 8 4 3 4 4 2 11 7 7 7 10 14 14 10 14 14 15 16 14 17 18 18 15 15 13 8 13 16
3 9 6 10 3 4 5 7 5 4 3 7 6 4 7 6 8 9 10 9 9 9 9 10 10 10 9 3 3 8 10 18 11 12 16 14 8 6 2 7 10 5 6 6 13 10 10 18 18 16 6 14 23 11
6 7 4 4 4 3 6 6 4 4 4 5 8 7 5 9 9 4 5 10 10 9 9 9 7 8 4 7 9 9 11 27 10 12 10 10 10 11 8 5 14 11 10 13 30 29 25 24 23 19 19 23 16 13
5 3 4 4 5 4 4 4 4 4 4 9 5 6 8 4 5 5 7 8 7 7 8 7 7 7 8 8 8 9 5 12 11 12 13 7 4 10 6 8 6 6 16 23 27 29 27 24 25 25 22 19 16 15
3 5 4 5 6 5 6 5 9 6 7 8 13 4 4 2 4 5 9 4 7 7 8 7 6 7 8 7 7 12 10 13 12 12 4 3 1 6 6 6 5 7 16 25 23 24 21 21 22 21 19 17 19 20
6 9 7 9 6 6 4 3 5 8 5 4 9 4 4 3 5 3 1 4 4 7 8 8 4 4 2 6 4 7 5 0 2 4 6 6 5 6 4 7 5 7 15 19 25 23 21 18 19 19 19 20 22 15
4 7 7 5 3 2 3 3 3 2 4 4 2 2 3 5 2 1 1 3 2 4 20 24 7 5 5 4 3 7 7 6 5 6 7 8 7 4 14 8 8 13 19 22 21 23 21 22 21 22 22 21 20 18
7 3 5 5 6 5 4 2 2 2 2 3 2 4 3 4 1 3 3 10 19 12 2 1 3 6 10 11 9 6 6 6 6 5 6 6 6 5 4 2 5 17 20 22 23 23 27 24 24 22 21 20 20 18
5 6 6 5 4 3 2 3 2 3 2 2 1 1 2 5 4 3 8 7 3 4 5 4 6 4 7 6 5 5 2 3 5 5 3 1 2 4 4 5 10 17 19 21 26 26 26 20 13 20 22 22 18 20
8 8 7 6 7 6 6 5 3 5 2 4 3 4 4 1 10 7 5 3 3 5 4 5 2 5 7 8 7 3 9 9 9 5 1 3 4 5 11 14 13 18 19 19 22 24 23 22 22 23 8 6 14 18
5 3 5 7 8 7 6 6 6 4 5 2 5 6 4 2 7 9 2 1 4 5 6 6 8 7 8 5 5 3 4 6 6 2 5 6 8 14 14 16 17 19 21 22 21 23 25 26 22 18 21 22 24 16
2 5 5 7 8 7 6 6 5 6 6 6 2 3 3 4 3 4 4 3 7 7 4 6 7 6 5 9 7 4 1 3 1 3 3 4 3 6 11 18 22 22 24 30 33 31 22 22 19 18 18 19 19 20
6 4 7 7 5 6 6 5 3 4 1 2 1 6 3 5 2 5 3 2 8 8 6 4 5 5 5 3 6 5 4 3 1 3 7 6 7 7 7 10 11 14 19 16 16 17 19 20 18 19 21 19 20 17

GFSWCAN_925_spd_111.txt.gz
Wind_Speed
25 25 24 23 23 23 24 24 25 24 21 20 18 16 15 14 15 16 15 11 5 3 8 9 5 5 4 3 3 5 5 5 4 3 1 2 4 4 1 5 1 3 3 1 1 3 4 8 5 4 5 6 4 9
23 22 22 22 22 22 23 24 24 22 19 18 17 15 14 12 12 12 8 9 14 5 5 23 9 5 3 5 1 4 3 4 1 2 4 4 1 5 9 3 1 2 4 4 3 3 4 4 5 7 8 10 8 10
21 19 19 20 21 21 22 23 22 20 16 16 17 15 13 11 10 10 13 15 10 3 5 8 7 10 11 3 5 2 2 4 3 1 1 2 2 4 1 2 6 1 1 1 3 4 9 14 2 13 4 13 11 10
18 16 16 17 17 19 20 19 17 17 17 17 16 14 12 11 9 11 9 12 10 6 2 5 8 11 3 6 4 4 5 2 2 1 1 3 2 2 1 2 2 6 5 7 1 5 2 5 5 11 13 12 13 12
14 13 13 14 15 16 15 14 15 16 17 16 15 12 11 10 10 12 15 17 11 4 2 5 23 14 9 8 3 3 6 4 3 2 2 3 2 3 3 2 2 3 3 3 2 10 6 6 6 10 11 12 12 12
8 10 12 11 13 12 12 13 14 15 15 13 10 10 10 8 8 6 3 4 7 3 2 3 7 8 15 13 6 3 3 2 2 1 4 1 3 2 2 2 3 3 7 8 5 7 8 6 5 11 10 12 13 14
6 8 9 9 9 11 11 13 14 12 10 7 9 9 9 8 8 6 3 2 6 2 2 3 3 5 16 13 4 3 9 3 2 2 2 2 2 2 1 3 4 6 7 8 9 8 5 5 6 10 13 17 20 19
6 7 7 7 9 10 11 12 11 10 8 9 8 7 7 8 11 10 23 12 4 2 3 3 3 3 9 2 3 3 0 2 2 3 1 2 2 2 1 4 5 1 9 6 7 6 6 7 10 9 12 18 13 12
6 8 7 8 9 10 10 10 7 8 7 7 6 4 4 4 5 5 8 6 4 3 2 3 2 3 1 3 2 1 3 2 2 3 4 4 2 2 6 4 6 2 7 7 6 6 5 8 7 6 8 9 14 12
7 7 8 8 8 9 8 7 6 6 5 4 2 4 3 7 6 10 4 2 3 3 4 3 3 4 5 4 4 3 1 3 2 4 3 3 4 6 8 6 5 5 9 8 6 7 4 3 6 6 4 2 6 12
7 8 8 9 9 8 7 5 4 3 3 2 4 2 3 12 6 3 4 3 4 4 4 4 5 1 4 2 2 2 3 2 2 4 4 3 3 6 10 8 7 4 8 5 4 8 9 6 5 3 4 8 9 17
7 8 8 9 9 8 6 4 5 5 2 6 15 10 3 3 4 4 4 4 5 6 3 9 9 4 4 3 3 2 2 2 4 3 3 2 1 6 9 8 7 5 8 6 5 10 12 10 9 9 10 7 4 15
9 9 8 9 10 7 6 5 6 10 11 5 3 3 1 3 0 6 9 4 4 4 5 5 5 5 2 3 1 2 2 3 2 2 2 4 6 7 8 7 7 8 9 9 6 12 9 7 7 11 14 11 7 15
8 9 9 9 10 7 5 4 4 3 2 3 3 3 5 4 5 5 7 6 5 6 5 5 6 4 4 3 3 3 4 2 3 4 6 5 9 8 8 7 7 8 7 7 8 12 10 10 9 6 7 8 5 4
7 8 9 9 6 4 5 3 4 5 4 3 2 4 6 6 7 5 9 6 5 4 4 4 4 2 4 4 4 2 4 4 4 5 3 8 11 8 8 7 8 8 8 7 12 13 14 14 14 14 13 11 9 5
6 6 8 5 4 3 4 3 3 3 4 3 6 7 5 6 8 9 3 3 2 1 3 2 5 4 6 3 5 6 4 4 4 4 6 9 10 9 7 7 8 12 13 13 15 18 21 20 19 20 22 20 16 11
4 3 3 4 4 4 4 4 3 4 4 5 4 6 7 7 7 5 5 2 2 3 3 5 6 5 3 3 7 7 8 6 4 8 8 10 12 11 9 7 10 15 16 18 20 22 24 26 25 19 15 23 18 15
5 4 6 4 5 7 4 2 2 4 6 6 7 8 8 7 6 4 2 4 2 0 2 5 2 3 4 6 4 6 2 3 6 5 8 5 6 8 13 9 15 18 17 21 25 25 26 24 19 16 25 25 19 20
3 6 8 7 7 3 3 4 4 4 7 7 6 8 8 7 4 5 2 3 6 4 1 2 4 3 2 3 5 4 5 3 4 3 5 8 12 10 11 13 15 15 15 16 18 17 21 27 22 24 24 25 18 20
8 5 9 6 5 3 3 3 6 4 4 5 8 8 8 7 6 7 4 1 3 3 1 3 4 4 3 3 1 2 3 4 4 4 4 7 17 13 11 14 12 16 17 19 19 18 15 17 21 23 24 22 18 14
3 5 7 7 4 6 4 2 3 4 5 5 5 5 7 5 7 8 7 5 2 4 5 4 4 5 7 6 6 10 4 3 4 4 3 3 21 23 11 10 14 11 3 4 2 6 13 15 20 27 23 23 21 16
2 7 5 7 3 3 4 7 4 6 3 4 6 2 3 4 6 7 5 6 6 5 6 6 7 7 4 12 5 9 15 17 16 12 12 12 8 12 7 4 6 3 5 11 17 18 20 23 27 27 29 22 11 18
6 6 3 4 3 3 6 6 4 3 3 3 3 5 4 4 5 2 3 2 4 4 5 7 13 17 10 13 15 13 18 16 6 9 9 15 4 14 17 18 16 5 4 7 17 22 23 31 33 30 22 14 19 19
4 2 3 4 5 4 4 3 4 3 3 6 3 5 5 2 3 4 4 5 4 4 4 4 5 4 5 9 3 3 8 3 3 1 2 10 1 5 14 13 8 1 11 13 16 21 26 25 27 19 18 23 24 17
2 3 3 5 4 4 5 4 6 4 5 6 8 4 0 2 2 2 2 2 5 6 5 9 5 0 3 7 4 7 7 6 3 3 5 2 7 10 11 11 6 7 12 16 17 20 21 23 23 20 21 20 17 19
5 6 7 5 4 6 5 3 4 7 2 2 2 1 3 1 2 7 1 3 2 2 4 3 4 8 4 2 1 1 4 7 6 1 6 9 11 9 8 7 4 3 10 14 19 21 21 19 18 20 18 19 19 18
5 6 7 6 5 5 4 3 3 2 2 3 3 7 6 6 3 2 3 1 2 6 2 5 6 5 2 2 3 6 6 4 5 6 7 8 8 5 8 8 8 10 15 16 20 23 22 20 19 18 17 16 19 21
5 4 9 9 6 3 2 3 3 1 2 5 4 3 3 4 2 3 1 6 13 13 15 18 16 2 6 4 5 7 8 9 7 7 6 6 5 4 4 2 5 10 18 18 21 19 20 21 21 18 15 16 18 22
7 4 3 3 3 3 4 3 1 3 3 2 1 0 2 2 2 3 6 10 16 16 10 8 14 17 14 10 7 5 7 10 10 6 5 3 5 5 5 6 12 13 14 17 19 19 20 20 21 15 11 13 13 21
10 7 8 8 8 4 3 4 2 4 6 3 2 3 2 2 6 12 17 19 17 3 3 3 5 5 9 15 14 17 18 15 9 6 4 4 6 8 8 10 12 12 14 15 16 15 18 20 19 13 11 10 4 11
6 8 10 7 6 7 6 7 7 6 4 3 0 5 4 3 5 13 19 23 6 5 8 8 10 10 6 10 8 3 6 11 10 6 1 4 11 14 12 12 14 16 15 16 19 19 19 22 21 20 17 15 20 22
4 3 3 4 7 5 5 2 4 4 3 1 3 4 4 2 1 3 5 4 9 7 4 3 8 13 16 12 15 11 6 5 10 12 9 11 8 10 14 14 15 17 18 17 17 19 24 25 22 22 23 22 22 25
6 4 6 6 3 4 5 6 2 2 4 2 1 2 3 4 3 3 4 2 10 10 11 11 11 9 7 6 7 5 4 1 6 5 5 3 2 4 8 12 17 20 23 24 24 25 24 23 18 25 25 20 18 18

GFSWCAN_925_spd_117.txt.gz
Wind_Speed
23 23 22 22 21 20 18 18 16 18 20 20 19 13 9 10 7 9 8 7 3 2 6 4 1 2 2 3 3 3 4 4 3 4 3 3 3 4 1 3 3 4 4 3 1 3 5 3 2 6 4 4 4 2
21 21 21 22 20 18 16 15 15 17 19 19 16 11 9 10 8 6 5 5 5 4 6 8 20 21 14 7 5 1 5 4 4 4 1 3 2 2 3 2 2 2 5 3 7 5 4 3 2 2 4 3 3 4
20 19 20 19 18 16 15 14 15 17 16 15 13 13 11 10 9 7 8 8 3 1 5 2 6 5 9 13 8 4 2 4 2 4 4 3 2 4 4 5 4 4 3 2 2 3 3 3 1 2 2 3 4 4
17 17 16 15 14 13 13 14 15 15 13 12 12 13 11 11 10 9 7 5 4 1 1 6 5 6 5 10 11 6 8 4 6 3 2 3 2 4 4 2 4 4 5 4 3 4 2 3 3 5 6 6 7 5
13 12 12 12 11 11 13 14 12 12 12 12 11 12 11 10 10 11 15 16 11 1 2 4 16 10 6 14 17 15 12 4 2 2 2 3 2 3 1 2 2 5 6 5 6 8 6 4 6 8 9 6 6 6
11 11 11 10 10 10 11 11 12 11 12 12 9 9 8 7 7 5 3 4 17 9 1 3 4 4 4 15 15 9 6 3 3 4 3 3 2 3 3 2 4 3 2 6 3 5 4 5 13 9 7 9 10 8
9 8 8 8 8 8 9 11 11 11 11 10 8 9 9 8 9 6 3 4 17 9 2 3 4 3 4 5 2 3 2 2 3 2 1 2 1 4 3 4 6 8 8 6 5 8 3 4 7 12 10 13 16 15
9 9 7 8 7 8 9 10 10 11 10 7 8 9 9 8 11 11 15 16 12 2 1 1 4 3 5 1 1 1 2 2 2 3 1 2 1 2 2 8 6 3 1 3 9 5 6 7 10 9 13 15 9 8
11 10 9 9 9 8 8 9 10 10 7 8 8 7 5 4 4 2 4 8 18 3 2 2 2 3 2 1 2 3 2 1 2 2 3 4 1 3 8 8 7 8 7 7 6 3 6 11 12 11 11 9 7 7
12 11 10 9 9 9 9 9 9 9 7 6 3 2 3 5 4 7 1 2 1 1 1 3 1 3 3 1 1 3 2 2 1 4 3 3 4 6 6 9 10 9 10 6 5 3 3 4 7 9 10 10 11 11
11 12 11 10 10 10 10 9 8 7 3 2 2 3 6 1 4 2 1 2 2 2 3 4 5 3 1 3 3 2 3 2 1 4 3 2 4 6 5 9 8 8 8 9 8 11 11 13 12 8 6 9 13 15
11 12 11 9 10 10 10 8 6 3 2 2 8 8 5 2 3 2 3 1 4 5 3 5 5 5 2 3 3 1 2 2 4 1 2 3 4 6 4 7 7 8 8 8 8 9 12 15 16 15 15 16 20 23
11 11 11 10 10 10 10 8 6 6 7 5 2 2 2 1 1 5 6 3 3 3 3 3 2 4 1 1 3 3 3 4 2 1 4 5 4 4 4 5 6 7 10 10 7 14 17 11 19 21 16 18 20 21
11 10 10 11 11 10 11 6 5 3 2 2 3 2 4 4 4 4 4 2 4 2 1 2 3 4 2 3 3 5 5 3 2 2 5 4 6 6 6 5 6 7 8 9 8 12 15 16 16 22 24 23 22 21
9 8 9 11 10 7 4 4 4 4 2 3 2 4 5 4 3 3 4 2 3 3 3 2 3 2 1 4 3 3 3 4 6 5 4 5 6 6 7 7 8 8 8 7 10 12 15 19 19 21 22 26 26 24
5 6 8 6 4 2 1 2 2 2 3 3 4 2 3 1 3 3 1 2 2 1 2 3 3 1 4 2 4 7 5 6 5 4 4 2 4 7 8 7 8 10 12 12 16 19 22 22 21 25 26 24 27 26
4 3 1 3 4 2 4 3 2 3 3 3 4 3 3 2 3 3 2 3 2 1 2 3 3 3 1 2 3 4 5 4 5 4 3 5 6 10 8 7 9 13 12 14 15 21 24 29 27 23 15 25 26 27
5 2 3 5 5 4 3 2 2 2 5 3 3 3 1 2 2 3 3 4 1 1 2 4 4 2 3 2 2 4 5 4 2 4 4 3 4 6 10 9 12 16 17 19 22 23 21 18 17 19 26 32 31 30
5 5 6 7 7 2 2 3 3 3 5 3 3 4 3 3 3 3 4 2 1 2 3 1 3 4 4 3 3 5 5 3 4 2 1 3 10 6 5 6 8 11 14 18 19 20 25 30 29 26 27 29 23 26
10 7 5 8 7 2 2 2 4 3 3 3 2 3 3 4 3 3 3 3 4 3 2 3 4 4 4 4 4 4 3 2 2 3 3 2 6 9 10 12 12 15 15 17 21 22 18 17 25 27 25 27 20 21
5 6 7 8 4 4 2 2 3 3 3 3 2 4 4 1 4 5 4 4 2 3 3 4 4 5 5 1 11 11 4 3 3 2 2 4 10 10 5 8 7 7 7 8 9 15 22 19 29 29 28 26 28 26
4 8 4 7 2 3 3 7 3 3 3 3 3 3 3 2 3 4 3 3 3 4 4 4 4 5 4 6 6 13 14 18 6 5 5 2 3 3 4 9 9 7 10 12 14 14 19 22 18 21 26 22 26 29
4 6 2 4 3 2 5 2 2 3 3 3 2 2 2 3 3 3 3 4 4 5 6 4 6 10 8 9 9 9 13 13 3 3 3 4 17 16 15 20 20 11 5 8 9 13 16 14 15 18 20 26 30 30
1 1 2 3 3 3 2 3 3 3 3 2 2 3 3 3 0 2 4 4 3 1 3 3 1 0 2 6 4 6 18 24 19 17 20 12 5 11 14 17 12 9 8 7 9 12 12 15 17 20 23 24 26 23
2 3 2 3 3 3 3 3 4 3 4 4 3 4 2 2 3 4 3 2 2 1 1 1 2 4 4 3 2 6 13 13 5 3 4 10 13 10 10 11 9 9 7 9 11 13 13 15 20 19 20 22 22 20
3 4 6 4 3 3 3 3 4 4 3 2 2 2 2 1 2 3 2 2 2 2 2 2 2 2 1 0 4 4 10 11 10 4 7 10 14 9 4 4 3 6 12 12 13 14 15 18 17 19 19 20 22 22
3 5 4 3 2 2 3 5 5 3 3 1 2 2 1 2 3 2 2 1 1 3 4 4 4 1 2 6 7 8 9 12 8 7 6 5 6 9 13 9 7 15 11 13 13 14 18 20 19 21 18 18 22 20
4 3 5 4 3 2 4 4 3 4 4 3 1 3 2 2 2 2 2 1 1 3 3 2 3 3 2 8 11 13 14 14 12 11 8 4 2 2 3 4 5 7 8 10 10 12 17 22 20 19 19 20 18 23
4 2 3 4 4 5 6 4 3 2 3 2 2 2 1 1 1 2 3 2 3 4 6 8 6 4 2 10 15 14 17 17 12 5 5 3 2 7 7 4 2 4 7 8 9 11 15 19 18 20 17 18 21 27
5 7 4 5 5 5 4 5 3 4 3 3 2 1 2 2 3 2 4 3 3 4 6 3 3 11 10 11 9 11 16 15 15 9 4 5 8 9 9 8 7 6 8 9 12 13 14 14 15 17 18 13 11 9
2 1 3 3 3 3 4 3 1 3 2 1 2 2 1 2 4 2 4 3 2 2 6 4 2 8 13 14 11 5 6 18 19 17 16 20 15 12 12 10 8 8 8 12 17 14 17 20 20 18 15 10 8 6
1 3 1 1 3 5 4 2 2 2 2 2 0 0 1 3 3 3 2 2 4 6 7 7 11 5 4 5 9 14 15 12 14 15 13 14 10 9 11 11 9 11 12 13 18 18 17 16 16 19 19 15 13 11
1 0 1 1 3 4 3 2 2 2 2 1 1 3 2 3 1 3 3 5 9 14 9 9 9 7 6 6 4 1 2 5 11 13 14 15 12 10 11 14 14 15 16 18 18 21 23 22 22 22 25 24 22 19

GFSWCAN_925_spd_120.txt.gz
Wind_Speed
18 22 23 21 21 21 20 17 15 13 13 15 16 15 10 7 8 9 9 8 4 2 6 3 3 1 2 2 3 3 3 3 3 3 3 4 3 4 1 4 4 5 4 3 2 1 5 2 5 5 3 7 7 6
20 20 20 20 20 19 18 16 13 12 13 15 13 11 9 7 7 7 4 2 6 4 5 8 21 23 16 17 4 1 4 3 4 4 1 3 2 2 4 3 1 2 5 4 7 5 4 3 3 3 4 1 3 6
18 19 19 19 18 16 14 13 12 12 13 14 11 10 11 9 8 8 7 7 3 2 5 2 7 7 11 22 19 4 2 4 3 3 4 2 2 4 4 5 3 3 3 2 2 3 4 4 3 3 3 3 4 8
17 17 16 16 15 13 12 11 12 13 13 11 10 10 10 11 10 10 9 3 3 2 2 6 5 9 8 12 18 10 9 6 6 3 3 3 3 4 4 2 3 4 5 4 4 5 4 6 5 5 4 8 9 5
14 15 14 13 12 12 11 11 12 11 11 10 11 10 9 9 9 10 15 20 14 1 2 5 17 9 8 11 16 14 16 5 2 2 2 3 2 3 1 2 2 5 6 5 6 6 4 4 6 6 7 6 7 7
14 14 13 12 11 10 9 9 10 10 10 11 11 9 8 8 6 5 3 9 23 10 0 3 5 4 1 12 16 11 6 3 3 4 3 2 2 3 3 3 5 5 5 6 2 3 2 3 6 3 5 8 6 5
14 12 10 9 8 7 9 9 10 11 10 10 10 7 9 9 8 6 3 2 10 16 2 4 4 3 1 5 2 3 3 2 3 3 2 2 1 3 3 4 7 8 7 6 4 7 3 4 6 7 7 9 9 8
13 12 10 9 9 8 8 10 10 11 10 8 7 9 10 8 10 11 14 13 13 3 1 2 4 3 2 2 2 1 2 2 3 3 1 3 1 2 2 8 5 3 6 5 7 7 4 8 11 6 10 10 6 5
13 12 11 10 9 9 9 9 10 11 9 8 10 8 5 5 4 4 6 18 18 2 2 2 2 3 2 1 2 3 2 1 1 2 3 4 1 4 8 8 6 9 9 7 7 4 7 11 13 10 9 7 5 6
12 12 11 10 9 10 10 10 10 10 9 7 3 1 2 5 2 6 1 3 2 3 1 3 1 3 3 1 0 3 2 2 1 3 2 2 4 6 8 9 8 9 9 9 10 5 6 6 11 11 13 12 13 13
11 11 10 11 10 10 9 9 10 10 5 2 1 3 5 3 5 0 1 3 2 2 3 4 5 3 1 3 3 0 3 1 1 4 3 2 4 5 2 9 8 7 9 9 6 9 10 12 12 10 8 14 15 17
11 11 10 10 10 9 9 9 8 5 2 2 7 7 4 0 1 2 3 1 4 5 3 4 4 4 1 3 3 2 3 1 4 2 2 3 4 6 4 4 7 8 8 8 10 9 11 11 17 17 17 16 20 26
11 11 10 11 10 9 9 9 7 7 7 4 2 2 2 2 1 5 6 3 3 3 3 2 2 3 2 2 3 3 3 5 3 2 4 5 4 5 5 2 5 5 9 7 6 9 12 15 18 19 16 23 22 19
11 10 10 10 10 10 9 10 5 4 3 2 3 3 4 3 4 4 4 3 4 3 3 3 3 3 2 3 3 4 4 3 2 2 5 3 6 4 5 4 6 8 8 8 9 13 13 15 18 23 25 25 22 20
9 9 9 10 9 9 7 4 4 5 2 3 2 4 5 3 3 3 4 1 3 1 2 2 3 3 1 4 3 3 3 5 5 5 4 5 4 4 5 6 7 7 7 6 9 9 12 17 16 19 20 21 22 20
5 5 8 5 4 3 2 3 3 4 3 2 3 2 2 1 3 2 1 2 2 1 1 1 3 3 4 3 4 7 6 6 4 4 4 2 2 4 6 7 7 8 10 9 11 13 15 16 17 22 21 21 22 21
6 3 1 2 5 3 4 4 4 3 2 3 4 3 3 3 4 2 1 2 1 1 3 2 5 5 3 2 3 4 5 3 2 4 3 3 5 5 7 6 8 11 11 12 12 12 17 19 18 15 12 22 24 25
6 3 4 4 5 3 3 4 2 2 5 4 3 2 2 2 2 2 3 2 3 4 0 2 3 3 4 4 3 4 4 4 4 5 5 5 5 5 9 8 11 15 14 15 16 15 15 15 14 16 23 25 26 26
8 5 4 5 7 2 2 3 3 3 5 3 3 3 2 3 3 3 4 2 1 2 1 0 2 3 4 4 5 3 3 2 2 3 4 6 9 7 10 13 13 12 14 13 15 16 20 24 25 25 27 23 22 25
9 7 4 7 8 3 3 2 4 2 3 3 2 3 3 4 3 4 6 4 3 2 3 3 4 3 4 4 4 3 3 3 2 3 3 4 5 7 6 4 3 4 7 9 13 14 15 15 21 26 27 27 21 22
5 6 6 7 5 4 2 2 3 3 3 3 2 3 4 1 3 4 4 4 3 3 4 4 4 4 5 4 5 6 3 4 4 4 4 1 2 5 5 6 5 6 4 1 3 11 13 18 25 22 23 27 31 28
3 6 4 6 3 4 3 6 3 2 2 3 2 3 3 3 3 4 3 2 3 4 4 4 4 5 3 5 6 15 15 11 10 5 6 5 2 2 2 5 4 4 7 12 15 14 19 20 16 15 16 20 21 23
3 5 2 4 3 2 5 2 3 3 3 3 2 3 3 3 3 3 2 3 4 5 7 6 11 12 7 11 10 13 18 19 6 9 11 13 10 5 2 4 6 8 5 12 10 12 13 8 7 7 8 12 15 17
2 2 2 3 3 3 2 3 3 2 2 2 2 4 3 3 2 2 3 3 3 1 4 6 4 2 1 3 5 6 13 19 10 10 14 7 2 4 8 10 7 6 7 5 4 7 8 7 8 9 12 17 18 19
1 2 2 3 2 2 3 3 3 2 4 4 2 3 2 1 1 2 3 3 2 2 1 0 2 4 4 3 3 4 12 17 7 5 7 8 10 8 7 7 8 8 7 7 8 8 7 8 10 13 16 17 18 20
2 4 5 3 3 3 3 3 3 3 3 3 4 2 1 0 1 4 2 2 1 1 1 2 2 1 2 2 1 2 6 8 7 2 6 10 11 7 2 2 3 6 8 11 9 9 9 10 11 13 14 18 22 21
3 4 4 3 2 2 3 3 3 4 4 2 2 2 1 2 3 2 2 1 1 2 2 3 2 1 1 1 3 4 8 9 5 2 1 2 0 3 5 4 4 8 7 10 13 12 12 13 13 15 15 17 23 23
4 3 4 2 3 2 2 3 4 5 3 1 1 3 3 2 1 2 3 0 1 2 3 3 2 3 2 1 3 9 9 7 7 6 4 2 1 2 3 4 5 7 6 8 10 10 11 12 15 17 18 18 20 23
3 2 2 4 5 4 5 4 3 1 3 3 2 2 2 1 1 1 2 1 3 1 2 3 4 5 4 7 7 7 11 12 9 3 2 2 3 6 6 6 4 5 4 4 6 6 7 10 14 19 20 20 25 20
4 4 3 3 4 5 4 7 3 5 3 3 1 1 2 2 3 3 3 3 4 3 4 1 8 12 9 10 7 7 11 14 15 7 4 4 5 7 7 7 5 4 4 5 6 7 7 10 11 13 15 16 19 16
2 4 3 4 4 4 4 2 2 2 2 3 1 1 1 2 2 1 4 3 4 5 1 2 3 6 8 10 9 5 6 17 21 21 18 17 15 14 13 9 8 6 6 6 8 11 12 12 13 14 14 16 15 16
3 6 3 2 3 3 3 1 3 3 2 1 0 1 2 3 2 2 3 4 3 2 2 4 6 3 1 3 6 9 13 14 14 14 16 18 20 16 11 9 11 9 8 8 12 12 13 15 16 18 17 15 14 14
2 2 3 2 3 4 3 3 2 2 3 2 2 1 1 2 1 2 6 3 5 7 4 5 6 5 4 4 4 4 5 7 7 9 11 14 14 13 12 13 14 15 15 14 16 18 18 17 18 19 21 20 16 13

GFSWCAN_925_spd_123.txt.gz
Wind_Speed
17 16 17 19 18 18 18 16 15 12 10 9 11 12 10 7 5 6 7 8 4 3 7 4 3 2 1 1 2 4 4 2 2 3 3 3 4 4 2 1 3 4 4 3 2 4 5 6 5 5 2 5 5 3
15 16 17 18 17 17 16 14 11 10 8 9 11 10 7 7 5 6 3 1 8 5 5 8 18 23 18 14 3 1 2 3 3 4 2 3 3 3 4 4 2 4 4 1 5 2 2 4 4 2 2 2 3 7
14 15 16 15 15 15 13 11 10 9 9 10 11 8 7 8 6 7 7 6 4 3 6 4 9 8 10 20 15 3 2 3 4 2 3 2 3 4 4 5 4 5 4 3 2 2 8 7 6 5 3 4 7 10
14 14 14 14 13 12 10 9 8 10 11 9 7 8 7 7 8 9 9 6 5 3 3 4 4 7 6 9 17 16 4 6 6 1 2 3 3 4 2 1 4 1 8 5 5 7 3 8 8 5 5 7 10 9
12 12 14 13 13 11 10 9 8 9 8 8 8 8 6 7 7 8 14 18 15 3 3 5 17 8 7 10 13 14 12 6 3 3 3 3 3 4 1 1 4 6 6 6 5 3 2 2 11 11 11 10 9 9
11 13 13 11 10 8 6 7 7 8 8 8 9 8 5 5 5 4 3 6 18 10 3 3 4 3 3 5 11 12 8 3 2 3 2 2 1 4 4 4 5 10 8 7 2 2 4 3 11 14 11 11 9 9
11 14 11 9 8 6 7 7 7 8 8 8 8 6 5 6 7 5 2 1 7 15 2 4 3 0 1 5 3 3 1 2 1 2 3 3 3 4 2 5 6 9 11 8 6 7 5 10 8 12 11 14 14 11
12 13 10 9 9 8 7 7 7 8 8 7 5 7 8 7 8 9 10 19 13 4 3 3 3 2 1 3 3 1 3 2 2 1 2 3 3 2 5 8 9 5 4 8 10 10 2 7 13 11 15 15 11 11
12 12 11 10 9 8 7 8 8 8 8 7 8 8 4 4 3 5 5 17 15 3 2 2 2 1 1 2 2 2 1 3 1 3 3 4 3 5 8 10 9 11 10 9 12 9 8 15 16 14 14 12 11 11
12 11 10 10 9 8 8 8 9 9 9 8 3 2 2 3 2 5 3 5 3 3 3 3 1 1 2 2 2 3 0 2 3 2 3 4 4 10 10 11 9 10 11 12 14 10 11 14 16 16 16 13 13 14
11 10 10 9 9 9 7 7 9 9 4 0 1 2 3 4 4 3 3 4 4 4 4 4 7 4 2 3 3 1 2 2 3 2 3 2 3 4 2 7 9 8 13 15 11 15 17 18 16 15 12 14 14 15
11 9 9 9 9 9 7 6 7 4 1 2 6 6 3 3 3 3 4 2 5 4 4 4 4 6 2 1 2 3 2 3 3 4 2 3 3 4 4 3 5 11 13 13 12 13 17 19 22 20 18 17 18 19
11 10 10 10 10 9 7 6 6 5 5 2 2 2 2 3 2 5 6 4 3 3 4 3 3 3 3 2 1 2 5 4 4 3 3 4 4 3 5 3 3 9 13 12 10 12 16 16 17 17 17 19 18 16
11 9 9 10 10 8 7 7 6 2 2 2 3 3 5 4 4 4 4 2 2 2 2 3 2 2 2 4 2 4 3 4 4 4 4 3 5 2 2 3 6 11 12 12 13 13 14 15 15 16 18 18 18 16
8 8 8 10 7 7 8 6 4 4 2 3 3 4 6 3 3 2 3 3 1 1 2 2 2 1 2 3 3 3 4 5 5 4 4 3 3 3 4 4 7 10 10 10 12 12 12 12 12 13 14 15 17 14
6 4 8 5 5 3 5 6 5 4 2 3 4 3 3 2 2 0 1 1 2 2 1 2 3 3 4 3 4 7 5 5 6 3 1 3 3 3 4 6 8 9 11 10 12 13 12 12 13 13 12 13 14 15
7 3 2 4 6 6 7 4 3 3 3 3 3 4 5 5 5 2 0 1 4 1 2 3 5 5 3 3 4 3 4 5 2 3 3 3 5 6 6 6 9 11 10 11 12 13 13 10 9 10 10 13 14 15
4 4 4 6 8 6 5 5 3 3 5 5 3 4 4 4 3 2 3 3 2 2 2 1 3 6 3 3 3 4 4 3 4 5 5 4 5 6 5 5 10 13 13 13 12 12 12 12 12 13 14 13 13 13
9 8 5 8 7 3 3 4 3 3 5 3 5 6 3 3 4 4 3 2 3 2 3 2 5 3 3 3 3 1 2 2 2 2 4 5 7 8 5 7 9 8 9 10 10 10 9 12 11 12 12 12 15 15
7 6 4 7 9 3 3 3 5 3 3 2 3 3 3 4 4 6 8 7 3 4 2 3 4 2 3 2 2 3 3 3 2 1 2 1 1 3 6 10 9 12 12 10 9 9 8 7 9 12 13 14 15 18
6 6 6 6 7 4 2 1 3 3 3 3 3 3 3 2 4 5 6 7 5 4 7 6 3 4 4 5 4 5 3 5 4 2 3 2 2 7 7 6 7 6 6 7 6 7 10 11 10 10 12 15 18 20
3 7 4 7 3 4 3 5 3 3 2 3 3 3 4 3 4 4 4 5 5 8 7 8 8 9 9 6 5 10 12 11 9 5 3 3 1 0 3 5 4 3 4 5 6 6 6 6 7 8 10 11 12 13
3 7 3 4 3 3 3 3 3 3 3 2 2 3 3 3 2 5 3 4 5 6 9 9 14 18 11 15 8 11 12 13 7 10 10 8 7 4 3 2 6 7 2 3 6 9 7 6 6 6 6 7 8 8
2 2 3 3 4 3 2 3 3 3 2 3 3 3 3 1 3 3 3 3 3 2 6 9 7 7 6 6 5 8 6 9 11 10 10 5 2 4 6 6 7 6 6 7 6 8 4 4 6 6 6 7 8 7
1 2 2 3 3 3 3 3 3 2 3 4 3 3 2 1 2 3 3 2 2 2 3 2 4 6 6 5 3 5 7 11 7 5 3 7 2 2 3 4 5 7 6 6 8 6 5 6 7 7 8 8 8 9
2 4 5 3 2 3 2 2 3 2 3 3 5 1 0 2 2 3 1 1 2 1 2 2 2 1 2 3 3 2 4 5 6 3 3 7 6 4 1 1 1 1 4 8 6 5 6 6 7 8 8 9 11 11
2 3 3 2 2 2 3 1 2 2 3 4 1 2 2 3 3 1 1 1 1 0 1 2 2 2 1 0 2 3 10 10 6 6 7 7 6 4 2 1 2 1 3 3 5 6 5 7 7 8 7 8 11 14
3 2 4 2 3 3 3 2 3 3 4 0 1 3 3 1 1 1 1 1 2 2 1 3 2 2 2 5 8 11 9 11 11 9 8 6 4 3 2 3 4 6 5 3 3 4 4 4 5 6 8 9 10 14
3 3 3 6 5 4 4 4 3 3 2 3 2 2 2 0 2 1 0 1 3 3 2 2 3 3 6 7 6 4 7 7 7 6 4 2 0 1 1 3 3 4 4 2 3 3 4 4 5 6 8 9 10 12
4 4 2 3 4 5 4 7 3 5 3 3 3 1 1 1 2 3 2 2 1 1 1 2 3 3 3 3 4 3 3 4 4 3 2 2 1 0 1 2 4 3 2 2 2 3 3 5 6 7 9 8 11 13
1 4 3 4 4 3 5 6 6 3 3 3 2 2 1 1 1 2 3 4 3 2 2 4 3 3 3 3 3 2 2 3 8 11 12 12 11 9 7 5 5 6 5 4 4 5 6 8 8 8 9 10 12 16
3 6 3 3 3 2 2 2 2 2 2 1 1 0 1 0 2 3 9 7 5 4 5 5 7 6 3 1 1 2 3 5 6 7 8 9 10 11 10 9 9 9 8 6 6 7 9 9 8 10 10 11 12 16
3 4 5 3 3 2 2 2 1 2 1 1 1 1 1 2 3 4 7 9 3 4 4 5 7 7 8 9 8 8 8 8 10 10 11 11 10 8 6 8 11 12 12 11 10 10 11 12 11 11 12 12 12 12

GFSWCAN_925_spd_126.txt.gz
Wind_Speed
15 15 13 14 15 15 15 15 15 13 10 8 9 10 9 5 4 3 4 5 6 4 10 9 6 6 2 4 6 5 7 5 7 8 7 4 6 4 6 9 6 8 6 6 5 5 11 5 3 6 5 5 4 4
14 13 13 14 14 13 14 14 12 10 9 7 10 10 8 4 4 3 4 2 5 8 8 9 14 16 12 9 5 5 5 4 7 5 2 3 5 4 9 9 5 7 8 6 4 4 3 4 6 2 3 4 1 5
13 12 12 11 13 12 12 11 9 9 7 8 10 10 6 5 6 6 5 5 5 4 9 12 10 16 17 22 17 5 3 1 3 3 0 3 5 5 8 9 12 7 5 7 4 9 8 8 7 6 4 4 6 8
14 12 11 11 13 12 11 10 8 8 9 9 9 7 6 6 6 8 7 5 7 5 4 1 2 6 6 14 15 21 3 1 5 3 4 5 6 3 8 5 7 5 10 8 10 12 5 9 9 7 6 6 9 8
14 11 10 12 12 10 9 8 7 7 7 7 7 7 7 5 6 7 10 12 11 5 4 5 18 11 10 14 13 16 14 5 4 4 5 6 1 3 6 6 10 8 12 9 10 4 5 1 9 8 10 11 10 10
12 9 10 12 9 7 6 7 6 7 8 8 7 7 5 4 4 3 3 4 13 10 4 4 4 5 4 12 13 13 13 6 5 5 4 1 1 4 5 9 11 13 11 11 9 2 4 1 10 11 11 11 10 9
11 9 11 10 8 7 7 6 6 6 7 7 6 3 3 4 5 6 5 3 10 10 3 4 3 4 4 10 7 6 8 5 6 5 4 5 5 4 8 12 13 11 11 9 7 7 5 9 9 12 10 12 12 11
10 9 10 8 8 7 8 7 8 7 7 6 4 4 6 6 7 8 8 19 7 6 4 4 3 4 8 6 6 4 7 6 5 6 1 5 3 4 5 11 11 12 13 10 12 11 5 10 12 12 14 14 12 11
10 8 10 9 8 8 7 7 8 8 7 6 7 5 2 4 4 1 7 6 13 5 3 3 5 2 4 4 3 5 5 6 3 6 7 3 5 5 11 11 10 10 10 12 12 12 9 12 16 15 15 14 12 12
10 9 11 9 9 8 8 8 8 8 8 7 3 5 3 4 7 8 5 5 6 5 4 4 2 3 3 6 7 6 5 7 7 5 4 5 10 17 17 17 13 11 13 8 13 13 12 14 16 17 16 13 12 13
10 9 9 9 9 9 7 7 7 8 2 2 3 1 4 4 6 5 4 5 5 4 5 6 9 6 3 7 7 4 5 5 7 5 4 4 7 4 4 5 10 12 10 13 12 12 15 16 17 16 14 15 16 17
10 10 9 8 8 8 7 7 4 3 1 1 4 5 3 5 5 5 5 4 5 4 5 5 6 9 3 2 3 4 5 3 5 6 3 3 2 3 2 3 5 11 13 14 12 9 14 17 21 18 16 16 16 15
9 10 10 9 9 8 8 6 4 4 3 2 2 3 3 5 4 6 8 5 4 4 4 5 5 5 4 4 4 5 7 7 4 4 4 5 4 1 3 4 4 10 12 13 11 13 17 19 20 20 18 19 19 18
10 11 10 10 10 10 9 7 4 2 2 1 3 3 5 5 5 5 7 3 3 1 2 3 4 5 4 7 3 5 4 4 6 8 9 4 2 2 2 5 6 11 13 14 13 15 16 17 17 17 19 20 19 18
11 9 8 10 9 8 8 7 5 4 2 2 3 4 6 6 3 3 3 3 4 3 3 3 3 3 6 4 4 3 4 5 6 8 4 3 4 1 3 3 5 9 12 12 15 13 16 18 16 16 17 17 19 18
8 5 9 7 5 5 8 9 6 4 2 3 4 4 8 8 7 5 4 4 1 2 3 4 3 4 6 4 6 9 6 5 5 5 4 5 4 2 2 2 5 8 11 12 16 17 17 17 17 15 15 16 17 18
9 4 6 6 8 8 11 4 4 4 3 4 4 8 10 7 5 4 2 4 2 2 3 3 5 6 2 4 8 5 11 9 3 1 3 2 1 2 3 3 6 11 13 14 15 17 17 18 16 14 13 15 16 17
4 7 6 8 11 9 5 5 2 3 5 6 7 7 8 7 7 3 3 3 3 2 2 2 6 4 4 5 7 9 6 6 1 3 4 2 4 4 6 4 7 13 13 14 14 15 16 16 15 13 14 15 16 15
7 8 6 10 9 3 3 5 4 3 6 6 8 9 7 6 7 7 5 5 2 2 1 3 6 9 10 4 6 7 5 3 4 3 5 4 5 7 9 8 10 15 15 16 15 15 16 16 15 15 16 17 16 17
6 9 7 8 10 3 3 3 5 4 4 2 5 7 7 7 6 7 8 8 6 4 3 4 5 2 6 7 6 3 4 3 3 4 3 4 7 6 7 9 11 16 16 15 15 13 14 15 15 14 15 16 16 16
9 5 7 6 8 4 2 1 3 3 4 4 4 3 4 5 7 8 9 9 10 7 6 8 9 7 3 3 2 0 1 4 4 4 2 3 5 7 1 4 8 13 13 13 10 12 10 12 13 14 14 15 16 16
4 9 5 7 3 5 3 7 4 3 3 4 6 4 6 7 7 7 6 8 11 11 12 11 11 11 10 10 6 7 6 5 7 8 5 5 3 0 2 4 6 5 7 9 10 10 12 12 10 10 12 13 13 15
5 8 3 4 4 3 3 2 3 2 3 3 2 3 2 3 3 2 4 7 9 10 11 12 17 21 15 18 14 10 10 12 8 8 10 10 9 5 3 1 1 2 3 4 4 6 8 8 9 11 10 8 10 11
2 2 3 4 5 3 1 3 3 2 2 4 4 3 4 4 3 4 5 7 7 6 6 10 9 9 10 11 9 10 13 11 10 9 8 9 6 7 6 6 5 4 5 5 7 8 9 8 9 9 10 10 11 12
1 2 2 4 3 4 4 3 4 4 4 5 3 4 3 3 3 4 5 1 1 2 3 5 6 7 8 7 7 7 6 8 4 3 3 7 10 8 8 5 4 3 3 6 8 8 8 7 7 9 11 12 12 12
3 6 4 4 4 5 4 3 3 1 3 3 4 3 2 2 3 3 1 2 2 3 2 0 3 4 3 3 2 2 3 5 7 3 3 5 8 6 3 3 3 2 1 4 7 7 8 9 10 11 12 11 9 9
3 5 5 4 3 2 3 2 3 2 3 3 3 1 3 3 3 2 2 3 4 5 4 4 4 3 4 5 6 8 8 5 7 0 5 5 6 4 4 2 1 1 2 4 5 7 8 8 8 9 9 8 9 12
3 3 7 3 4 4 5 2 2 4 4 4 2 3 3 3 1 2 2 3 3 2 3 4 5 5 6 8 7 10 6 6 7 5 7 7 6 5 4 3 3 2 1 2 3 5 7 8 9 9 9 10 9 10
4 4 3 8 7 4 3 5 5 3 2 2 2 2 2 1 2 2 3 3 2 2 7 1 4 3 6 7 9 8 10 12 11 8 6 4 5 7 3 2 3 2 1 1 2 4 4 6 6 6 7 8 7 8
5 5 3 3 3 4 3 4 4 6 4 4 3 3 2 1 3 3 3 3 3 3 4 6 12 12 9 12 12 8 5 3 1 2 2 2 2 2 1 2 2 3 3 2 2 1 1 3 3 6 6 7 8 10
2 2 3 4 3 2 7 10 11 9 7 6 5 2 6 3 2 3 6 6 6 2 4 6 5 3 4 4 3 2 6 6 2 3 6 9 9 9 7 5 6 6 5 5 4 3 2 4 4 5 6 6 7 9
5 6 4 4 1 3 5 3 3 3 3 3 3 3 4 2 3 3 9 8 3 8 5 7 12 11 10 10 9 9 7 7 8 7 7 7 8 7 7 10 10 11 10 10 7 6 7 7 6 6 6 8 8 11
6 6 5 5 3 2 2 2 3 2 2 3 3 3 3 2 4 4 6 9 8 9 10 9 9 10 10 11 9 8 8 8 11 12 12 12 12 11 8 9 9 10 11 11 11 10 12 11 10 10 10 8 12 14

GFSWCAN_925_spd_129.txt.gz
Wind_Speed
14 15 14 12 13 13 13 13 14 15 13 10 8 8 9 8 6 4 7 6 9 6 15 17 15 9 8 7 10 7 9 11 9 10 10 6 6 4 5 10 11 8 9 10 9 11 14 5 4 4 6 7 11 11
13 12 12 10 10 11 12 12 12 12 11 10 8 9 9 6 5 4 7 4 7 10 9 19 17 18 15 14 9 2 10 6 7 7 10 5 4 7 9 9 10 9 10 11 11 5 4 2 5 1 5 7 7 9
13 13 11 11 9 10 12 13 13 10 9 7 9 10 9 6 6 6 7 9 10 9 13 17 13 22 25 22 15 6 5 4 5 5 2 5 6 5 10 7 10 11 9 9 11 12 11 7 2 5 6 7 6 3
14 12 12 11 9 9 12 13 12 11 9 9 10 9 7 7 7 8 9 6 10 8 5 2 3 8 11 18 20 20 15 5 7 4 6 6 7 5 7 10 9 9 5 7 11 14 13 7 10 8 7 6 7 6
13 13 11 9 9 9 10 10 9 8 7 8 8 8 8 8 7 9 13 15 15 11 5 9 20 18 18 15 19 18 17 9 6 5 6 8 9 4 6 10 10 10 11 11 11 8 7 8 7 5 6 7 7 7
12 11 10 7 9 9 8 8 9 8 8 9 9 8 7 5 5 6 3 8 14 12 5 4 1 4 8 13 18 15 14 8 9 8 6 3 2 2 7 11 9 10 12 14 10 12 7 4 3 5 7 8 8 8
12 12 9 7 9 9 9 8 8 8 7 7 7 5 4 5 7 8 5 4 6 10 4 4 4 10 9 10 12 9 14 10 8 9 10 7 7 5 7 12 13 11 10 10 9 6 6 7 8 9 9 9 7 9
12 11 8 8 8 9 8 8 8 9 8 8 6 5 7 8 10 11 12 14 12 8 5 4 6 3 12 7 10 8 9 9 9 10 7 7 4 5 7 10 8 9 11 13 11 9 14 12 14 12 11 11 11 10
13 10 9 8 9 9 8 8 8 8 8 7 7 7 5 5 5 2 6 10 11 7 5 5 8 2 6 10 9 7 7 8 7 10 11 10 9 4 9 12 13 11 9 11 13 12 12 13 9 11 12 13 11 10
14 10 11 10 10 9 8 8 8 9 9 8 3 5 4 6 4 11 5 6 6 6 5 7 9 5 5 8 6 7 7 6 7 9 9 9 11 15 17 18 16 15 10 9 13 10 11 14 13 15 14 12 10 11
13 9 11 10 10 9 8 7 7 8 3 3 5 2 6 6 6 5 4 5 6 5 5 8 12 7 4 6 8 7 3 9 9 8 3 8 12 9 9 6 6 10 14 12 8 9 11 13 8 12 14 13 12 14
12 11 12 10 9 7 7 7 5 3 3 5 7 7 4 5 4 5 5 4 6 6 5 8 7 10 4 3 4 5 6 6 5 5 5 9 7 5 5 5 4 6 13 11 11 10 10 15 15 13 13 13 15 15
12 12 12 10 9 8 7 7 6 6 5 5 3 4 4 5 3 6 8 5 5 5 3 5 5 5 6 4 3 8 5 7 0 4 5 7 8 6 4 4 3 5 9 11 13 10 12 16 17 19 16 15 15 17
11 11 11 9 10 9 8 7 5 2 2 2 3 4 5 5 6 8 8 2 3 2 3 4 5 6 6 8 4 1 5 5 5 6 13 7 12 7 5 4 5 7 9 11 11 10 13 15 16 18 18 17 17 18
10 11 11 11 11 10 9 8 5 4 2 3 3 4 6 8 5 8 2 3 7 4 2 4 6 6 9 5 6 6 3 4 6 14 3 9 8 5 6 6 5 7 10 10 11 11 14 17 16 17 19 21 19 19
9 8 11 8 7 9 10 8 6 3 3 3 5 6 8 8 7 8 5 5 3 4 5 4 5 5 7 6 9 8 5 3 2 5 9 7 9 8 5 3 4 6 9 11 13 14 17 16 16 17 18 18 20 20
9 4 5 9 9 8 13 6 6 4 4 4 5 9 11 7 7 7 3 5 2 3 5 4 4 5 5 9 14 7 11 9 2 2 4 11 7 5 2 0 1 8 10 12 14 15 17 19 19 18 14 18 19 20
7 8 7 11 13 11 5 4 2 3 5 6 9 10 8 7 7 7 5 4 1 3 4 4 3 5 4 8 8 6 4 6 7 2 8 7 4 1 3 3 2 8 11 13 14 15 17 18 17 15 18 18 18 16
7 7 9 13 12 3 4 6 5 4 7 8 8 10 8 7 7 8 3 5 2 5 3 2 5 7 9 7 5 3 6 6 11 7 1 1 2 5 6 7 7 9 14 14 15 16 18 20 19 18 19 19 19 20
3 6 7 13 9 2 3 2 4 4 5 4 7 8 7 7 8 6 6 8 8 4 6 5 7 7 7 7 6 8 6 14 8 3 1 4 6 6 6 8 9 12 15 16 16 16 16 17 19 19 18 18 19 19
8 5 7 7 7 4 2 2 4 4 5 5 5 3 6 6 7 10 10 8 7 10 10 9 9 10 10 9 21 9 3 2 4 4 3 6 6 4 4 3 9 12 15 15 11 15 15 16 19 19 18 17 19 18
5 9 4 6 4 4 4 8 4 4 3 6 8 8 7 7 7 8 7 8 11 12 12 12 12 10 10 11 11 8 4 2 4 5 6 8 7 3 5 3 4 5 10 14 14 13 15 15 16 18 17 17 17 16
9 7 3 4 3 3 5 5 4 3 4 4 4 4 4 3 3 3 4 9 10 11 10 11 15 19 14 14 11 14 9 8 7 8 7 7 9 5 5 0 3 4 3 5 5 9 11 12 10 11 11 8 9 12
3 3 4 4 5 3 3 3 3 3 2 3 7 10 6 3 3 4 8 9 7 6 8 9 7 8 10 13 11 11 16 16 14 13 10 7 7 6 5 7 5 3 5 7 4 7 10 8 6 9 11 12 13 16
2 3 3 4 3 4 6 5 5 4 4 5 4 5 2 3 3 3 6 1 3 1 3 5 5 7 7 7 9 13 16 14 9 7 3 4 5 5 4 3 5 6 5 6 5 6 8 11 9 13 17 15 17 19
3 5 5 5 5 5 4 3 1 3 4 3 3 4 3 3 4 2 2 3 3 2 2 5 4 3 4 2 3 5 4 4 5 5 5 2 3 4 7 7 7 10 6 6 7 9 11 10 14 19 18 17 11 12
4 6 5 4 2 1 4 4 3 3 3 3 1 2 3 4 0 3 3 1 3 2 3 1 3 4 5 7 8 8 8 6 5 4 5 3 6 5 7 1 3 3 1 3 6 9 11 11 14 15 16 16 13 9
4 4 6 4 7 5 8 5 2 2 3 1 2 4 2 3 0 2 3 2 7 4 4 7 6 6 7 9 10 9 11 10 8 6 7 8 6 5 3 3 3 2 3 3 5 6 8 10 12 12 12 13 13 12
4 4 5 8 9 5 4 3 3 2 2 1 3 3 3 2 3 2 4 5 14 7 6 6 3 8 11 11 8 8 8 8 8 7 8 7 8 11 7 5 8 7 8 6 5 4 6 7 8 9 11 12 13 9
6 7 4 7 4 3 4 5 4 5 5 5 2 3 3 3 3 3 2 6 13 9 5 7 15 13 8 6 11 11 11 12 17 11 3 1 4 6 3 5 6 7 6 4 6 6 3 4 6 6 9 13 4 4
2 3 3 3 3 2 5 8 10 12 10 8 8 6 3 4 5 5 9 4 2 5 5 5 19 9 15 17 6 13 6 13 7 9 9 12 12 11 11 7 6 9 9 9 8 9 4 6 7 6 7 7 13 11
5 5 4 3 4 8 11 11 8 5 6 4 4 6 3 4 4 4 7 8 1 13 23 9 1 14 9 7 12 11 13 13 10 9 10 10 11 12 13 16 18 18 15 14 14 13 10 8 10 8 7 7 7 10
7 9 8 6 6 5 3 2 3 3 5 5 2 4 3 1 8 4 6 10 12 10 10 11 11 9 8 9 8 5 5 5 6 8 11 13 13 13 14 15 16 18 18 18 20 16 11 13 15 15 12 8 11 11